M I D A S
Marine Information and Data Acquisition System
Tripno 1499 of the Zeeleeuw from 2008-06-09 06:34:31 to 2008-06-09 14:33:54
Back to CruiseResearch ActivitiesStationsMapUnderway DataData graphs

EquipmentUnitsComment
TimeDGPSUTC
LatitudeDGPSDM.mWGS84
LongitudeDGPSDM.mWGS84
TemperatureSBE03/SBE38deg celciusITS90
ConductivitySBE21S/mITS90
SalinitySBE21 Practical Salinity Units
ChlorophylAChelsea fluorimeterg/lCalibrated in Aceton
Missing or incorrect values are displayed as -999
Sea surface data collected by the RV Zeeleeuw from 2008-06-09 06:34:32 to 2008-06-09 14:45:23
                                                                                    Next 1000 lines
Time Latitude Longitude Temperature Conductivity Salinity ChlorophylA
2008-06-09 06:34:42 51°13.624 2°56.047 17.9434 0.342045 2.075063 -1.766697
2008-06-09 06:34:47 51°13.624 2°56.045 17.9205 0.342045 2.075063 -1.766697
2008-06-09 06:34:52 51°13.625 2°56.043 17.9484 0.342045 2.075063 -1.766697
2008-06-09 06:34:57 51°13.626 2°56.04 17.9501 0.342045 2.075063 -1.766697
2008-06-09 06:35:02 51°13.627 2°56.037 17.9523 0.342045 2.075063 -1.731873
2008-06-09 06:35:07 51°13.628 2°56.034 17.9498 0.342045 2.075063 -1.766697
2008-06-09 06:35:12 51°13.629 2°56.031 17.9518 0.342045 2.075063 -1.766697
2008-06-09 06:35:17 51°13.63 2°56.028 17.9484 0.342045 2.075102 -1.731873
2008-06-09 06:35:22 51°13.632 2°56.024 17.9554 0.342045 2.075102 -1.731873
2008-06-09 06:35:27 51°13.633 2°56.02 17.9549 0.342045 2.075102 -1.731873
2008-06-09 06:35:32 51°13.635 2°56.016 17.9571 0.342045 2.075102 -1.731873
2008-06-09 06:35:37 51°13.636 2°56.011 17.957 0.342045 2.075102 -1.766697
2008-06-09 06:35:42 51°13.638 2°56.007 17.9543 0.342045 2.075102 -1.731873
2008-06-09 06:35:47 51°13.639 2°56.002 17.9593 0.342045 2.075141 -1.731873
2008-06-09 06:35:52 51°13.641 2°55.997 17.9642 0.342045 2.075141 -1.731873
2008-06-09 06:35:57 51°13.643 2°55.992 17.9565 0.342045 2.075141 -1.731873
2008-06-09 06:36:02 51°13.644 2°55.987 17.937 0.341942 2.074479 -1.731873
2008-06-09 06:36:07 51°13.646 2°55.982 17.4395 0.342457 2.077594 -1.731873
2008-06-09 06:36:12 51°13.648 2°55.977 17.2432 0.340295 2.063888 -1.627401
2008-06-09 06:36:17 51°13.649 2°55.971 17.1441 0.341324 2.062035 -1.592577
2008-06-09 06:36:22 51°13.651 2°55.966 17.0555 0.720113 4.617502 0.218274
2008-06-09 06:36:27 51°13.653 2°55.96 17.0206 0.720113 4.617502 0.218274
2008-06-09 06:36:32 51°13.655 2°55.954 16.9976 1.920958 13.365334 3.561383
2008-06-09 06:36:37 51°13.657 2°55.949 16.9781 2.717642 19.61104 2.063949
2008-06-09 06:36:42 51°13.659 2°55.943 16.9648 3.030208 22.243949 1.437116
2008-06-09 06:36:47 51°13.661 2°55.937 16.9466 2.575244 18.663966 1.541588
2008-06-09 06:36:52 51°13.663 2°55.931 16.9452 3.164155 23.493737 1.228171
2008-06-09 06:36:57 51°13.665 2°55.925 16.9458 3.164155 23.493737 1.228171
2008-06-09 06:37:02 51°13.667 2°55.919 16.9329 3.077719 22.83949 0.984403
2008-06-09 06:37:07 51°13.669 2°55.914 16.9124 3.024209 22.438543 0.879931
2008-06-09 06:37:12 51°13.671 2°55.908 16.914 2.989643 22.185137 0.810283
2008-06-09 06:37:17 51°13.674 2°55.902 16.911 2.959115 21.952723 0.775459
2008-06-09 06:37:22 51°13.676 2°55.896 16.9011 2.959943 21.971718 0.740634
2008-06-09 06:37:27 51°13.678 2°55.89 16.9018 2.959943 21.971718 0.740634
2008-06-09 06:37:32 51°13.681 2°55.885 16.9055 2.964704 22.017648 0.775459
2008-06-09 06:37:37 51°13.683 2°55.879 16.8851 2.966567 22.041658 0.775459
2008-06-09 06:37:42 51°13.686 2°55.874 16.8862 2.967498 22.058504 0.775459
2008-06-09 06:37:47 51°13.688 2°55.868 16.8747 2.974225 22.118875 0.775459
2008-06-09 06:37:52 51°13.691 2°55.862 16.8761 2.976088 22.13943 0.810283
2008-06-09 06:37:57 51°13.694 2°55.856 16.8707 2.976088 22.13943 0.810283
2008-06-09 06:38:02 51°13.697 2°55.85 16.865 2.979296 22.169257 0.775459
2008-06-09 06:38:07 51°13.7 2°55.844 16.8591 2.984056 22.211827 0.810283
2008-06-09 06:38:12 51°13.702 2°55.838 16.8447 2.987575 22.244675 0.810283
2008-06-09 06:38:17 51°13.704 2°55.832 16.8276 2.991818 22.28393 0.845107
2008-06-09 06:38:22 51°13.707 2°55.827 16.8189 2.996889 22.329559 0.914755
2008-06-09 06:38:27 51°13.708 2°55.824 16.78 2.996889 22.329559 0.914755
2008-06-09 06:38:32 51°13.71 2°55.821 16.7403 3.001857 22.373025 1.019227
2008-06-09 06:38:37 51°13.711 2°55.819 16.7358 3.006824 22.417406 1.088875
2008-06-09 06:38:42 51°13.712 2°55.817 16.7154 3.016656 22.503141 1.262995
2008-06-09 06:38:47 51°13.713 2°55.816 16.6981 3.03156 22.632033 1.437116
2008-06-09 06:38:52 51°13.713 2°55.814 16.6618 3.049569 22.788025 1.785356
2008-06-09 06:38:57 51°13.714 2°55.812 16.6542 3.049569 22.788025 1.785356
2008-06-09 06:39:02 51°13.715 2°55.809 16.635 3.0859 23.101418 2.272893
2008-06-09 06:39:07 51°13.716 2°55.807 16.6157 3.119128 23.392808 2.516661
2008-06-09 06:39:12 51°13.717 2°55.804 16.5945 3.148425 23.649581 2.795254
2008-06-09 06:39:17 51°13.718 2°55.8 16.5727 3.180311 23.926571 3.10867
2008-06-09 06:39:22 51°13.719 2°55.796 16.541 3.214167 24.224984 3.422087
2008-06-09 06:39:27 51°13.72 2°55.791 16.534 3.214167 24.224984 3.422087
2008-06-09 06:39:32 51°13.722 2°55.785 16.5202 3.231666 24.384399 3.631031
2008-06-09 06:39:37 51°13.723 2°55.779 16.5002 3.254653 24.591897 3.839975
2008-06-09 06:39:42 51°13.724 2°55.773 16.4755 3.277123 24.794539 4.014096
2008-06-09 06:39:47 51°13.725 2°55.768 16.4736 3.295556 24.96229 4.39716
2008-06-09 06:39:52 51°13.725 2°55.763 16.4456 3.319064 25.174427 4.640929
2008-06-09 06:39:57 51°13.726 2°55.758 16.4422 3.319064 25.174427 4.640929
2008-06-09 06:40:02 51°13.726 2°55.755 16.4294 3.342469 25.386161 4.849873
2008-06-09 06:40:07 51°13.726 2°55.753 16.3991 3.362665 25.567739 5.058817
2008-06-09 06:40:12 51°13.726 2°55.753 16.3904 3.382344 25.746319 5.33741
2008-06-09 06:40:17 51°13.726 2°55.753 16.3834 3.406064 25.960349 5.51153
2008-06-09 06:40:22 51°13.727 2°55.753 16.3783 3.427817 26.158728 5.720474
2008-06-09 06:40:27 51°13.726 2°55.753 16.3924 3.427817 26.158728 5.720474
2008-06-09 06:40:32 51°13.726 2°55.752 16.3869 3.449259 26.350618 5.929418
2008-06-09 06:40:37 51°13.726 2°55.751 16.3786 3.467802 26.517733 6.103539
2008-06-09 06:40:42 51°13.726 2°55.749 16.3867 3.489661 26.717006 6.208011
2008-06-09 06:40:47 51°13.725 2°55.747 16.3914 3.503751 26.847419 6.208011
2008-06-09 06:40:52 51°13.724 2°55.744 16.3841 3.508828 26.89652 6.208011
2008-06-09 06:40:57 51°13.723 2°55.742 16.3784 3.508828 26.89652 6.208011
2008-06-09 06:41:02 51°13.722 2°55.74 16.3693 3.50572 26.872847 6.208011
2008-06-09 06:41:07 51°13.722 2°55.738 16.3592 3.498571 26.814861 6.173187
2008-06-09 06:41:12 51°13.721 2°55.737 16.3592 3.491837 26.761485 6.173187
2008-06-09 06:41:17 51°13.721 2°55.737 16.3627 3.485207 26.705199 6.103539
2008-06-09 06:41:22 51°13.722 2°55.737 16.3551 3.476505 26.631348 6.138363
2008-06-09 06:41:27 51°13.722 2°55.738 16.341 3.476505 26.631348 6.138363
2008-06-09 06:41:32 51°13.722 2°55.738 16.3335 3.477748 26.644598 6.242835
2008-06-09 06:41:37 51°13.721 2°55.738 16.3321 3.481063 26.677062 6.312483
2008-06-09 06:41:42 51°13.721 2°55.737 16.3329 3.483964 26.706022 6.382131
2008-06-09 06:41:47 51°13.719 2°55.736 16.3356 3.485311 26.720712 6.347307
2008-06-09 06:41:52 51°13.718 2°55.735 16.3333 3.487383 26.742109 6.486603
2008-06-09 06:41:57 51°13.716 2°55.734 16.3323 3.487383 26.742109 6.486603
2008-06-09 06:42:02 51°13.715 2°55.733 16.3302 3.492459 26.789587 6.521427
2008-06-09 06:42:07 51°13.713 2°55.732 16.3267 3.499504 26.854915 6.486603
2008-06-09 06:42:12 51°13.711 2°55.731 16.3284 3.502923 26.888354 6.486603
2008-06-09 06:42:17 51°13.71 2°55.73 16.325 3.501784 26.8803 6.556251
2008-06-09 06:42:22 51°13.708 2°55.729 16.3238 3.500644 26.8717 6.521427
2008-06-09 06:42:27 51°13.707 2°55.728 16.3182 3.500644 26.8717 6.521427
2008-06-09 06:42:32 51°13.706 2°55.728 16.3141 3.498365 26.853952 6.451779
2008-06-09 06:42:37 51°13.704 2°55.727 16.3146 3.493806 26.816278 6.416955
2008-06-09 06:42:42 51°13.704 2°55.727 16.3159 3.488212 26.770888 6.382131
2008-06-09 06:42:47 51°13.703 2°55.727 16.3145 3.483447 26.731462 6.382131
2008-06-09 06:42:52 51°13.702 2°55.727 16.3172 3.480857 26.711075 6.382131
2008-06-09 06:42:57 51°13.702 2°55.727 16.3287 3.480857 26.711075 6.382131
2008-06-09 06:43:02 51°13.702 2°55.727 16.3296 3.482307 26.725033 6.416955
2008-06-09 06:43:07 51°13.702 2°55.727 16.3325 3.481478 26.719617 6.451779
2008-06-09 06:43:12 51°13.702 2°55.727 16.3314 3.488419 26.780268 6.486603
2008-06-09 06:43:17 51°13.702 2°55.728 16.3322 3.489352 26.789287 6.486603
2008-06-09 06:43:22 51°13.703 2°55.728 16.3341 3.489766 26.792267 6.451779
2008-06-09 06:43:27 51°13.703 2°55.728 16.3307 3.489766 26.792267 6.451779
2008-06-09 06:43:32 51°13.704 2°55.728 16.3248 3.485726 26.755731 6.347307
2008-06-09 06:43:37 51°13.704 2°55.728 16.3287 3.480132 26.705996 6.347307
2008-06-09 06:43:42 51°13.705 2°55.728 16.3364 3.478267 26.687976 6.382131
2008-06-09 06:43:47 51°13.706 2°55.728 16.3343 3.477334 26.678968 6.347307
2008-06-09 06:43:52 51°13.706 2°55.727 16.3316 3.477334 26.678968 6.347307
2008-06-09 06:43:57 51°13.707 2°55.727 16.3311 3.477334 26.678968 6.347307
2008-06-09 06:44:02 51°13.708 2°55.727 16.3297 3.47806 26.685673 6.416955
2008-06-09 06:44:07 51°13.709 2°55.727 16.3355 3.478992 26.69414 6.347307
2008-06-09 06:44:12 51°13.71 2°55.727 16.3287 3.473398 26.645516 6.242835
2008-06-09 06:44:17 51°13.71 2°55.727 16.3282 3.465317 26.575789 6.242835
2008-06-09 06:44:22 51°13.711 2°55.726 16.3253 3.462002 26.548173 6.277659
2008-06-09 06:44:27 51°13.712 2°55.726 16.3235 3.462002 26.548173 6.277659
2008-06-09 06:44:32 51°13.713 2°55.726 16.3223 3.457444 26.509467 6.242835
2008-06-09 06:44:37 51°13.714 2°55.725 16.3192 3.453612 26.476924 6.277659
2008-06-09 06:44:42 51°13.715 2°55.725 16.3172 3.448536 26.433835 6.277659
2008-06-09 06:44:47 51°13.715 2°55.725 16.3135 3.4475 26.426116 6.242835
2008-06-09 06:44:52 51°13.716 2°55.724 16.311 3.448846 26.438621 6.242835
2008-06-09 06:44:57 51°13.717 2°55.724 16.3094 3.448846 26.438621 6.242835
2008-06-09 06:45:02 51°13.718 2°55.723 16.3094 3.451747 26.46432 6.347307
2008-06-09 06:45:07 51°13.719 2°55.722 16.3076 3.454544 26.489683 6.382131
2008-06-09 06:45:12 51°13.719 2°55.722 16.3087 3.456305 26.506254 6.347307
2008-06-09 06:45:17 51°13.72 2°55.721 16.3064 3.458688 26.529185 6.382131
2008-06-09 06:45:22 51°13.721 2°55.721 16.3052 3.462521 26.563367 6.416955
2008-06-09 06:45:27 51°13.722 2°55.72 16.3037 3.462521 26.563367 6.416955
2008-06-09 06:45:32 51°13.723 2°55.719 16.3028 3.4648 26.584353 6.347307
2008-06-09 06:45:37 51°13.723 2°55.718 16.3032 3.466664 26.60128 6.416955
2008-06-09 06:45:42 51°13.724 2°55.718 16.3036 3.468011 26.614349 6.382131
2008-06-09 06:45:47 51°13.725 2°55.717 16.3033 3.468736 26.621054 6.312483
2008-06-09 06:45:52 51°13.725 2°55.716 16.3055 3.47029 26.635347 6.347307
2008-06-09 06:45:57 51°13.726 2°55.715 16.3058 3.47029 26.635347 6.347307
2008-06-09 06:46:02 51°13.727 2°55.714 16.3026 3.471015 26.642053 6.347307
2008-06-09 06:46:07 51°13.727 2°55.713 16.3012 3.471637 26.648421 6.347307
2008-06-09 06:46:12 51°13.728 2°55.713 16.3011 3.471948 26.651064 6.347307
2008-06-09 06:46:17 51°13.728 2°55.712 16.3035 3.472259 26.653706 6.312483
2008-06-09 06:46:22 51°13.729 2°55.711 16.3 3.472362 26.655129 6.312483
2008-06-09 06:46:27 51°13.73 2°55.71 16.3031 3.472362 26.655129 6.312483
2008-06-09 06:46:32 51°13.73 2°55.709 16.3026 3.473087 26.660752 6.382131
2008-06-09 06:46:37 51°13.73 2°55.709 16.2968 3.473812 26.667461 6.347307
2008-06-09 06:46:42 51°13.731 2°55.708 16.2983 3.474641 26.67505 6.382131
2008-06-09 06:46:47 51°13.731 2°55.707 16.298 3.47547 26.682641 6.312483
2008-06-09 06:46:52 51°13.732 2°55.707 16.2961 3.476195 26.688807 6.382131
2008-06-09 06:46:57 51°13.733 2°55.706 16.2975 3.476195 26.688807 6.382131
2008-06-09 06:47:02 51°13.733 2°55.705 16.2976 3.476713 26.693755 6.312483
2008-06-09 06:47:07 51°13.734 2°55.704 16.2961 3.477231 26.698704 6.347307
2008-06-09 06:47:12 51°13.735 2°55.703 16.2957 3.477956 26.705414 6.382131
2008-06-09 06:47:17 51°13.736 2°55.702 16.2968 3.478474 26.710907 6.382131
2008-06-09 06:47:22 51°13.737 2°55.701 16.2935 3.478785 26.713007 6.347307
2008-06-09 06:47:27 51°13.739 2°55.7 16.2948 3.478785 26.713007 6.347307
2008-06-09 06:47:32 51°13.74 2°55.699 16.2937 3.477853 26.706163 6.382131
2008-06-09 06:47:37 51°13.742 2°55.697 16.2948 3.47806 26.708468 6.382131
2008-06-09 06:47:42 51°13.744 2°55.696 16.2955 3.478785 26.714637 6.382131
2008-06-09 06:47:47 51°13.746 2°55.695 16.2968 3.4792 26.718162 6.382131
2008-06-09 06:47:52 51°13.748 2°55.693 16.2944 3.479614 26.722231 6.382131
2008-06-09 06:47:57 51°13.75 2°55.691 16.2954 3.479614 26.722231 6.382131
2008-06-09 06:48:02 51°13.754 2°55.689 16.2929 3.479614 26.722774 6.382131
2008-06-09 06:48:07 51°13.757 2°55.686 16.2936 3.479925 26.725962 6.416955
2008-06-09 06:48:12 51°13.762 2°55.683 16.2934 3.480236 26.728606 6.382131
2008-06-09 06:48:17 51°13.767 2°55.68 16.2932 3.48065 26.731587 6.416955
2008-06-09 06:48:22 51°13.774 2°55.676 16.2915 3.481375 26.738301 6.382131
2008-06-09 06:48:27 51°13.781 2°55.671 16.291 3.481375 26.738301 6.382131
2008-06-09 06:48:32 51°13.789 2°55.666 16.2912 3.482204 26.745352 6.382131
2008-06-09 06:48:37 51°13.798 2°55.661 16.2891 3.4821 26.745015 6.382131
2008-06-09 06:48:42 51°13.807 2°55.655 16.2853 3.48324 26.754711 6.416955
2008-06-09 06:48:47 51°13.816 2°55.65 16.2831 3.483758 26.759663 6.416955
2008-06-09 06:48:52 51°13.824 2°55.644 16.2839 3.484276 26.764615 6.416955
2008-06-09 06:48:57 51°13.833 2°55.639 16.2903 3.484276 26.764615 6.416955
2008-06-09 06:49:02 51°13.841 2°55.634 16.2921 3.485001 26.77133 6.382131
2008-06-09 06:49:07 51°13.849 2°55.63 16.2936 3.485933 26.77981 6.416955
2008-06-09 06:49:12 51°13.857 2°55.625 16.2942 3.489663 26.812098 6.521427
2008-06-09 06:49:17 51°13.864 2°55.621 16.2984 3.497329 26.879004 6.660724
2008-06-09 06:49:22 51°13.872 2°55.617 16.303 3.502924 26.927195 6.765196
2008-06-09 06:49:27 51°13.879 2°55.613 16.3029 3.502924 26.927195 6.765196
2008-06-09 06:49:32 51°13.886 2°55.609 16.2958 3.502509 26.923118 6.904492
2008-06-09 06:49:37 51°13.893 2°55.605 16.2924 3.501163 26.910005 6.97414
2008-06-09 06:49:42 51°13.9 2°55.601 16.2944 3.499608 26.895677 6.904492
2008-06-09 06:49:47 51°13.907 2°55.596 16.2966 3.497226 26.873747 6.80002
2008-06-09 06:49:52 51°13.913 2°55.592 16.2921 3.495257 26.854804 6.80002
2008-06-09 06:49:57 51°13.92 2°55.587 16.29 3.495257 26.854804 6.80002
2008-06-09 06:50:02 51°13.926 2°55.582 16.2888 3.498572 26.881933 6.869668
2008-06-09 06:50:07 51°13.933 2°55.578 16.2903 3.506653 26.951287 6.869668
2008-06-09 06:50:12 51°13.939 2°55.574 16.2863 3.51318 27.008528 6.80002
2008-06-09 06:50:17 51°13.946 2°55.569 16.285 3.514527 27.020002 6.80002
2008-06-09 06:50:22 51°13.952 2°55.565 16.2855 3.514734 27.022317 6.80002
2008-06-09 06:50:27 51°13.958 2°55.56 16.2862 3.514734 27.022317 6.80002
2008-06-09 06:50:32 51°13.964 2°55.555 16.2862 3.51546 27.029596 6.80002
2008-06-09 06:50:37 51°13.97 2°55.55 16.2809 3.515667 27.032461 6.765196
2008-06-09 06:50:42 51°13.976 2°55.545 16.2804 3.516703 27.04184 6.730372
2008-06-09 06:50:47 51°13.983 2°55.539 16.2785 3.517532 27.050554 6.730372
2008-06-09 06:50:52 51°13.989 2°55.533 16.2748 3.517325 27.049338 6.591076
2008-06-09 06:50:57 51°13.995 2°55.528 16.2744 3.517325 27.049338 6.591076
2008-06-09 06:51:02 51°14.002 2°55.521 16.2722 3.512041 27.004863 6.556251
2008-06-09 06:51:07 51°14.01 2°55.515 16.2718 3.508207 26.972752 6.556251
2008-06-09 06:51:12 51°14.018 2°55.508 16.2697 3.506446 26.958845 6.451779
2008-06-09 06:51:17 51°14.026 2°55.5 16.2674 3.505307 26.950234 6.416955
2008-06-09 06:51:22 51°14.034 2°55.493 16.2668 3.505099 26.950662 6.451779
2008-06-09 06:51:27 51°14.043 2°55.485 16.2623 3.505099 26.950662 6.451779
2008-06-09 06:51:32 51°14.052 2°55.477 16.262 3.505618 26.956173 6.521427
2008-06-09 06:51:37 51°14.062 2°55.469 16.2617 3.506032 26.960801 6.451779
2008-06-09 06:51:42 51°14.071 2°55.461 16.2558 3.507275 26.973042 6.451779
2008-06-09 06:51:47 51°14.081 2°55.454 16.2511 3.508726 26.9876 6.451779
2008-06-09 06:51:52 51°14.091 2°55.446 16.2515 3.511316 27.010776 6.347307
2008-06-09 06:51:57 51°14.102 2°55.437 16.2501 3.511316 27.010776 6.347307
2008-06-09 06:52:02 51°14.112 2°55.429 16.2479 3.51432 27.038591 6.312483
2008-06-09 06:52:07 51°14.122 2°55.421 16.2472 3.517014 27.062661 6.242835
2008-06-09 06:52:12 51°14.132 2°55.412 16.2428 3.521365 27.101426 6.208011
2008-06-09 06:52:17 51°14.143 2°55.403 16.2413 3.531519 27.190261 6.173187
2008-06-09 06:52:22 51°14.153 2°55.394 16.2404 3.536492 27.234924 6.173187
2008-06-09 06:52:27 51°14.164 2°55.384 16.2376 3.536492 27.234924 6.173187
2008-06-09 06:52:32 51°14.175 2°55.374 16.2361 3.538357 27.2514 6.242835
2008-06-09 06:52:37 51°14.185 2°55.363 16.2356 3.539704 27.264565 6.312483
2008-06-09 06:52:42 51°14.196 2°55.352 16.2353 3.542709 27.291333 6.382131
2008-06-09 06:52:47 51°14.206 2°55.34 16.2349 3.54706 27.330167 6.416955
2008-06-09 06:52:52 51°14.217 2°55.326 16.2357 3.549962 27.357178 6.451779
2008-06-09 06:52:57 51°14.228 2°55.312 16.2347 3.549962 27.357178 6.451779
2008-06-09 06:53:02 51°14.238 2°55.298 16.2344 3.552863 27.383081 6.416955
2008-06-09 06:53:07 51°14.249 2°55.282 16.235 3.555246 27.40512 6.486603
2008-06-09 06:53:12 51°14.259 2°55.265 16.2347 3.555764 27.410106 6.486603
2008-06-09 06:53:17 51°14.269 2°55.248 16.2343 3.555868 27.412109 6.382131
2008-06-09 06:53:22 51°14.279 2°55.231 16.2339 3.554728 27.402927 6.382131
2008-06-09 06:53:27 51°14.289 2°55.213 16.2339 3.554728 27.402927 6.382131
2008-06-09 06:53:32 51°14.298 2°55.194 16.2284 3.551309 27.373706 6.416955
2008-06-09 06:53:37 51°14.307 2°55.175 16.2267 3.547475 27.341507 6.451779
2008-06-09 06:53:42 51°14.317 2°55.155 16.2252 3.545092 27.321147 6.416955
2008-06-09 06:53:47 51°14.326 2°55.136 16.224 3.542916 27.302559 6.416955
2008-06-09 06:53:52 51°14.336 2°55.116 16.2166 3.542916 27.303115 6.416955
2008-06-09 06:53:57 51°14.345 2°55.096 16.2121 3.542916 27.303115 6.416955
2008-06-09 06:54:02 51°14.354 2°55.076 16.2077 3.546128 27.331113 6.556251
2008-06-09 06:54:07 51°14.364 2°55.056 16.2024 3.552552 27.387122 6.6259
2008-06-09 06:54:12 51°14.374 2°55.036 16.1995 3.558044 27.43518 6.765196
2008-06-09 06:54:17 51°14.384 2°55.016 16.1933 3.56768 27.519259 6.904492
2008-06-09 06:54:22 51°14.394 2°54.995 16.1941 3.580114 27.62845 7.14826
2008-06-09 06:54:27 51°14.404 2°54.974 16.1916 3.580114 27.62845 7.14826
2008-06-09 06:54:32 51°14.415 2°54.953 16.1874 3.592548 27.738287 7.287557
2008-06-09 06:54:37 51°14.426 2°54.932 16.1825 3.606227 27.857729 7.531325
2008-06-09 06:54:42 51°14.437 2°54.911 16.1789 3.623947 28.013061 7.844741
2008-06-09 06:54:47 51°14.448 2°54.89 16.1743 3.641978 28.171217 8.367102
2008-06-09 06:54:52 51°14.459 2°54.869 16.1735 3.663845 28.362481 8.645695
2008-06-09 06:54:57 51°14.47 2°54.849 16.1691 3.663845 28.362481 8.645695
2008-06-09 06:55:02 51°14.48 2°54.827 16.169 3.678355 28.48894 8.471574
2008-06-09 06:55:07 51°14.49 2°54.805 16.1698 3.696907 28.65203 8.26263
2008-06-09 06:55:12 51°14.499 2°54.783 16.1749 3.711106 28.776031 8.227806
2008-06-09 06:55:17 51°14.508 2°54.759 16.1787 3.732562 28.965022 8.158158
2008-06-09 06:55:22 51°14.516 2°54.736 16.1826 3.747799 29.099387 8.123334
2008-06-09 06:55:27 51°14.523 2°54.712 16.1878 3.747799 29.099387 8.123334
2008-06-09 06:55:32 51°14.532 2°54.689 16.1929 3.761896 29.224022 8.158158
2008-06-09 06:55:37 51°14.539 2°54.665 16.1997 3.773714 29.327859 8.053686
2008-06-09 06:55:42 51°14.547 2°54.642 16.2011 3.785531 29.430557 7.984038
2008-06-09 06:55:47 51°14.554 2°54.618 16.2054 3.795068 29.511784 7.879566
2008-06-09 06:55:52 51°14.561 2°54.594 16.2117 3.80274 29.575088 7.809917
2008-06-09 06:55:57 51°14.568 2°54.57 16.2161 3.80274 29.575088 7.809917
2008-06-09 06:56:02 51°14.575 2°54.546 16.2184 3.810826 29.641381 7.775093
2008-06-09 06:56:07 51°14.582 2°54.523 16.2214 3.8214 29.729205 7.670621
2008-06-09 06:56:12 51°14.588 2°54.499 16.2237 3.830109 29.800901 7.670621
2008-06-09 06:56:17 51°14.595 2°54.474 16.2269 3.839439 29.878601 7.392029
2008-06-09 06:56:22 51°14.602 2°54.451 16.2304 3.849185 29.958684 7.113436
2008-06-09 06:56:27 51°14.609 2°54.426 16.2334 3.849185 29.958684 7.113436
2008-06-09 06:56:32 51°14.616 2°54.402 16.236 3.85779 30.03013 6.97414
2008-06-09 06:56:37 51°14.623 2°54.378 16.2369 3.866499 30.101871 6.765196
2008-06-09 06:56:42 51°14.63 2°54.355 16.2391 3.873757 30.161664 6.6259
2008-06-09 06:56:47 51°14.637 2°54.331 16.2396 3.882259 30.232244 6.416955
2008-06-09 06:56:52 51°14.645 2°54.307 16.2412 3.888895 30.287279 6.277659
2008-06-09 06:56:57 51°14.652 2°54.284 16.2407 3.888895 30.287279 6.277659
2008-06-09 06:57:02 51°14.659 2°54.26 16.2414 3.896257 30.348614 6.068715
2008-06-09 06:57:07 51°14.667 2°54.236 16.2415 3.902789 30.402145 5.85977
2008-06-09 06:57:12 51°14.675 2°54.212 16.2416 3.910877 30.470412 5.755298
2008-06-09 06:57:17 51°14.682 2°54.189 16.2422 3.918654 30.536621 5.616002
2008-06-09 06:57:22 51°14.69 2°54.165 16.2416 3.923009 30.573155 5.476706
2008-06-09 06:57:27 51°14.698 2°54.142 16.2416 3.923009 30.573155 5.476706
2008-06-09 06:57:32 51°14.705 2°54.118 16.2425 3.926431 30.601596 5.33741
2008-06-09 06:57:37 51°14.713 2°54.094 16.2424 3.931201 30.642363 5.163289
2008-06-09 06:57:42 51°14.721 2°54.071 16.2415 3.936178 30.684936 5.093641
2008-06-09 06:57:47 51°14.728 2°54.047 16.2436 3.938563 30.705638 5.023993
2008-06-09 06:57:52 51°14.736 2°54.024 16.2429 3.941259 30.729044 4.884697
2008-06-09 06:57:57 51°14.744 2°54 16.243 3.941259 30.729044 4.884697
2008-06-09 06:58:02 51°14.752 2°53.977 16.2437 3.945096 30.761728 4.780225
2008-06-09 06:58:07 51°14.76 2°53.954 16.2439 3.948 30.786941 4.745401
2008-06-09 06:58:12 51°14.768 2°53.93 16.2414 3.951837 30.820262 4.640929
2008-06-09 06:58:17 51°14.775 2°53.907 16.2426 3.954533 30.84368 4.57128
2008-06-09 06:58:22 51°14.783 2°53.883 16.2405 3.957333 30.868002 4.466808
2008-06-09 06:58:27 51°14.79 2°53.859 16.2399 3.957333 30.868002 4.466808
2008-06-09 06:58:32 51°14.798 2°53.835 16.2391 3.959822 30.888993 4.39716
2008-06-09 06:58:37 51°14.805 2°53.812 16.2392 3.961585 30.90431 4.257864
2008-06-09 06:58:42 51°14.812 2°53.788 16.2372 3.964281 30.927737 4.188216
2008-06-09 06:58:47 51°14.82 2°53.764 16.2375 3.966355 30.94576 4.083744
2008-06-09 06:58:52 51°14.827 2°53.74 16.2368 3.969155 30.971358 3.979271
2008-06-09 06:58:57 51°14.835 2°53.717 16.2366 3.969155 30.971358 3.979271
2008-06-09 06:59:02 51°14.842 2°53.693 16.2359 3.971644 30.992991 3.839975
2008-06-09 06:59:07 51°14.849 2°53.669 16.2355 3.974237 31.016161 3.700679
2008-06-09 06:59:12 51°14.857 2°53.645 16.237 3.976829 31.039334 3.631031
2008-06-09 06:59:17 51°14.864 2°53.621 16.238 3.979837 31.066119 3.526559
2008-06-09 06:59:22 51°14.872 2°53.597 16.2386 3.982118 31.086594 3.352439
2008-06-09 06:59:27 51°14.879 2°53.574 16.238 3.982118 31.086594 3.352439
2008-06-09 06:59:32 51°14.887 2°53.55 16.2385 3.984711 31.109142 3.213142
2008-06-09 06:59:37 51°14.894 2°53.526 16.238 3.962518 30.916837 3.10867
2008-06-09 06:59:42 51°14.902 2°53.502 16.2367 3.989897 31.154883 2.969374
2008-06-09 06:59:47 51°14.91 2°53.478 16.2356 3.992075 31.173831 2.93455
2008-06-09 06:59:52 51°14.917 2°53.454 16.2359 3.992904 31.180412 2.830078
2008-06-09 06:59:57 51°14.925 2°53.43 16.2345 3.992904 31.180412 2.830078
2008-06-09 07:00:02 51°14.932 2°53.406 16.2352 3.99363 31.186092 2.76043
2008-06-09 07:00:07 51°14.94 2°53.383 16.2361 3.993734 31.186994 2.725606
2008-06-09 07:00:12 51°14.948 2°53.359 16.2353 3.994149 31.19124 2.690782
2008-06-09 07:00:17 51°14.955 2°53.335 16.2364 3.994771 31.197292 2.655957
2008-06-09 07:00:22 51°14.963 2°53.311 16.2372 3.995186 31.200901 2.621133
2008-06-09 07:00:27 51°14.971 2°53.287 16.2395 3.995186 31.200901 2.621133
2008-06-09 07:00:32 51°14.978 2°53.263 16.2401 3.995808 31.206953 2.586309
2008-06-09 07:00:37 51°14.986 2°53.239 16.2415 3.995497 31.204883 2.621133
2008-06-09 07:00:42 51°14.993 2°53.214 16.2417 3.996016 31.209395 2.621133
2008-06-09 07:00:47 51°15 2°53.19 16.2428 3.996949 31.21688 2.621133
2008-06-09 07:00:52 51°15.007 2°53.166 16.2421 3.997779 31.223463 2.655957
2008-06-09 07:00:57 51°15.014 2°53.141 16.2429 3.997779 31.223463 2.655957
2008-06-09 07:01:02 51°15.021 2°53.117 16.2451 3.998193 31.226435 2.655957
2008-06-09 07:01:07 51°15.027 2°53.092 16.2465 3.999127 31.23392 2.690782
2008-06-09 07:01:12 51°15.033 2°53.067 16.2495 4.00006 31.241405 2.725606
2008-06-09 07:01:17 51°15.039 2°53.042 16.2515 4.00089 31.247987 2.76043
2008-06-09 07:01:22 51°15.044 2°53.017 16.2535 4.001927 31.256375 2.830078
2008-06-09 07:01:27 51°15.049 2°52.992 16.2575 4.001927 31.256375 2.830078
2008-06-09 07:01:32 51°15.055 2°52.966 16.259 4.002342 31.259985 2.795254
2008-06-09 07:01:37 51°15.06 2°52.941 16.2615 4.002549 31.260513 2.795254
2008-06-09 07:01:42 51°15.065 2°52.916 16.2629 4.002964 31.262847 2.795254
2008-06-09 07:01:47 51°15.069 2°52.89 16.2632 4.003483 31.266083 2.830078
2008-06-09 07:01:52 51°15.072 2°52.864 16.264 4.004209 31.269847 2.830078
2008-06-09 07:01:57 51°15.075 2°52.838 16.2646 4.004209 31.269847 2.830078
2008-06-09 07:02:02 51°15.077 2°52.811 16.2658 4.004416 31.269736 2.864902
2008-06-09 07:02:07 51°15.079 2°52.785 16.2658 4.004416 31.267183 2.899726
2008-06-09 07:02:12 51°15.079 2°52.758 16.2674 4.004208 31.263464 2.899726
2008-06-09 07:02:17 51°15.08 2°52.732 16.268 4.00452 31.265533 2.93455
2008-06-09 07:02:22 51°15.08 2°52.705 16.2698 4.004416 31.263354 2.969374
2008-06-09 07:02:27 51°15.079 2°52.678 16.2698 4.004416 31.263354 2.969374
2008-06-09 07:02:32 51°15.078 2°52.652 16.2707 4.004416 31.262716 2.93455
2008-06-09 07:02:37 51°15.077 2°52.625 16.2712 4.004105 31.258733 2.93455
2008-06-09 07:02:42 51°15.075 2°52.599 16.2724 4.004105 31.258095 2.93455
2008-06-09 07:02:47 51°15.074 2°52.572 16.2725 4.00369 31.253211 2.93455
2008-06-09 07:02:52 51°15.072 2°52.546 16.2722 4.002964 31.246259 2.93455
2008-06-09 07:02:57 51°15.07 2°52.519 16.271 4.002964 31.246259 2.93455
2008-06-09 07:03:02 51°15.068 2°52.493 16.2708 4.002756 31.24318 2.899726
2008-06-09 07:03:07 51°15.066 2°52.467 16.2709 4.002756 31.242542 2.899726
2008-06-09 07:03:12 51°15.064 2°52.44 16.2701 4.002445 31.239199 2.899726
2008-06-09 07:03:17 51°15.062 2°52.414 16.2702 4.001823 31.23315 2.899726
2008-06-09 07:03:22 51°15.06 2°52.387 16.269 4.001615 31.230709 2.864902
2008-06-09 07:03:27 51°15.059 2°52.361 16.2686 4.001615 31.230709 2.864902
2008-06-09 07:03:32 51°15.057 2°52.335 16.2679 4.001512 31.230444 2.830078
2008-06-09 07:03:37 51°15.056 2°52.308 16.2666 4.001615 31.231346 2.830078
2008-06-09 07:03:42 51°15.054 2°52.282 16.2674 4.001719 31.232248 2.830078
2008-06-09 07:03:47 51°15.053 2°52.255 16.2657 4.001719 31.232248 2.795254
2008-06-09 07:03:52 51°15.052 2°52.229 16.2651 4.001823 31.233787 2.795254
2008-06-09 07:03:57 51°15.051 2°52.202 16.2646 4.001823 31.233787 2.795254
2008-06-09 07:04:02 51°15.049 2°52.175 16.2661 4.00203 31.235591 2.795254
2008-06-09 07:04:07 51°15.048 2°52.149 16.264 4.002653 31.24164 2.795254
2008-06-09 07:04:12 51°15.047 2°52.122 16.2639 4.003067 31.245886 2.795254
2008-06-09 07:04:17 51°15.047 2°52.095 16.2626 4.003586 31.251671 2.795254
2008-06-09 07:04:22 51°15.045 2°52.069 16.2616 4.004312 31.257986 2.76043
2008-06-09 07:04:27 51°15.044 2°52.042 16.2608 4.004312 31.257986 2.76043
2008-06-09 07:04:32 51°15.043 2°52.016 16.2599 4.004727 31.262232 2.76043
2008-06-09 07:04:37 51°15.042 2°51.989 16.2595 4.004831 31.263135 2.76043
2008-06-09 07:04:42 51°15.041 2°51.962 16.2567 4.005142 31.265841 2.76043
2008-06-09 07:04:47 51°15.041 2°51.936 16.2557 4.005557 31.270726 2.76043
2008-06-09 07:04:52 51°15.04 2°51.909 16.2549 4.005868 31.273433 2.76043
2008-06-09 07:04:57 51°15.039 2°51.882 16.2545 4.005868 31.273433 2.76043
2008-06-09 07:05:02 51°15.038 2°51.856 16.2528 4.006283 31.278318 2.76043
2008-06-09 07:05:07 51°15.037 2°51.829 16.2515 4.006386 31.279859 2.795254
2008-06-09 07:05:12 51°15.036 2°51.803 16.2501 4.006594 31.282302 2.830078
2008-06-09 07:05:17 51°15.035 2°51.776 16.2483 4.007009 31.287188 2.795254
2008-06-09 07:05:22 51°15.035 2°51.749 16.2475 4.007424 31.292075 2.795254
2008-06-09 07:05:27 51°15.034 2°51.723 16.2458 4.007424 31.292075 2.795254
2008-06-09 07:05:32 51°15.033 2°51.696 16.2446 4.007527 31.293617 2.76043
2008-06-09 07:05:37 51°15.033 2°51.669 16.2442 4.008046 31.299407 2.76043
2008-06-09 07:05:42 51°15.033 2°51.642 16.242 4.008461 31.304295 2.725606
2008-06-09 07:05:47 51°15.033 2°51.615 16.2412 4.008979 31.310086 2.725606
2008-06-09 07:05:52 51°15.033 2°51.589 16.2386 4.009394 31.314975 2.725606
2008-06-09 07:05:57 51°15.032 2°51.562 16.2373 4.009394 31.314975 2.725606
2008-06-09 07:06:02 51°15.032 2°51.535 16.2371 4.01012 31.322573 2.655957
2008-06-09 07:06:07 51°15.031 2°51.508 16.2372 4.010743 31.328629 2.655957
2008-06-09 07:06:12 51°15.03 2°51.482 16.2373 4.011261 31.334423 2.655957
2008-06-09 07:06:17 51°15.03 2°51.455 16.2384 4.011883 31.34048 2.655957
2008-06-09 07:06:22 51°15.029 2°51.428 16.2404 4.012506 31.347818 2.621133
2008-06-09 07:06:27 51°15.028 2°51.401 16.2406 4.012506 31.347818 2.621133
2008-06-09 07:06:32 51°15.027 2°51.375 16.2402 4.013128 31.354516 2.551485
2008-06-09 07:06:37 51°15.025 2°51.348 16.2406 4.01375 31.360575 2.516661
2008-06-09 07:06:42 51°15.024 2°51.321 16.2426 4.014165 31.364828 2.516661
2008-06-09 07:06:47 51°15.022 2°51.295 16.2446 4.014269 31.365731 2.481837
2008-06-09 07:06:52 51°15.021 2°51.268 16.2464 4.014269 31.36509 2.481837
2008-06-09 07:06:57 51°15.018 2°51.242 16.2502 4.014269 31.36509 2.481837
2008-06-09 07:07:02 51°15.016 2°51.215 16.2513 4.01458 31.367799 2.412189
2008-06-09 07:07:07 51°15.015 2°51.189 16.2531 4.015099 31.372315 2.412189
2008-06-09 07:07:12 51°15.013 2°51.162 16.2541 4.015617 31.37619 2.412189
2008-06-09 07:07:17 51°15.011 2°51.136 16.254 4.015928 31.377617 2.447013
2008-06-09 07:07:22 51°15.009 2°51.109 16.2555 4.016239 31.379045 2.412189
2008-06-09 07:07:27 51°15.007 2°51.083 16.2552 4.016239 31.379045 2.412189
2008-06-09 07:07:32 51°15.005 2°51.056 16.2559 4.016654 31.380735 2.412189
2008-06-09 07:07:37 51°15.004 2°51.029 16.2561 4.017173 31.383328 2.377365
2008-06-09 07:07:42 51°15.002 2°51.003 16.2571 4.018106 31.389532 2.342541
2008-06-09 07:07:47 51°15 2°50.976 16.2568 4.019143 31.397921 2.307717
2008-06-09 07:07:52 51°14.998 2°50.949 16.2571 4.019973 31.404504 2.342541
2008-06-09 07:07:57 51°14.996 2°50.922 16.2572 4.019973 31.404504 2.342541
2008-06-09 07:08:02 51°14.995 2°50.895 16.2572 4.020803 31.411086 2.307717
2008-06-09 07:08:07 51°14.993 2°50.869 16.2564 4.021632 31.417669 2.203245
2008-06-09 07:08:12 51°14.991 2°50.842 16.2542 4.022358 31.423349 2.203245
2008-06-09 07:08:17 51°14.989 2°50.815 16.253 4.023188 31.430573 2.203245
2008-06-09 07:08:22 51°14.988 2°50.788 16.2523 4.024018 31.437156 2.168421
2008-06-09 07:08:27 51°14.986 2°50.762 16.2502 4.024018 31.437156 2.168421
2008-06-09 07:08:32 51°14.984 2°50.735 16.2478 4.025055 31.445545 2.098773
2008-06-09 07:08:37 51°14.983 2°50.708 16.2474 4.026611 31.459734 1.9943
2008-06-09 07:08:42 51°14.981 2°50.682 16.2474 4.027544 31.467863 1.924652
2008-06-09 07:08:47 51°14.979 2°50.655 16.2456 4.028685 31.478441 1.855004
2008-06-09 07:08:52 51°14.978 2°50.628 16.2437 4.029826 31.489663 1.785356
2008-06-09 07:08:57 51°14.976 2°50.601 16.2427 4.029826 31.489663 1.785356
2008-06-09 07:09:02 51°14.974 2°50.575 16.2397 4.030863 31.499983 1.715708
2008-06-09 07:09:07 51°14.973 2°50.548 16.2386 4.032108 31.512112 1.680884
2008-06-09 07:09:12 51°14.971 2°50.521 16.2348 4.032834 31.51908 1.611236
2008-06-09 07:09:17 51°14.97 2°50.494 16.2325 4.03356 31.526693 1.576412
2008-06-09 07:09:22 51°14.969 2°50.467 16.2296 4.03439 31.53521 1.576412
2008-06-09 07:09:27 51°14.968 2°50.44 16.2276 4.03439 31.53521 1.576412
2008-06-09 07:09:32 51°14.968 2°50.413 16.2257 4.034908 31.541017 1.47194
2008-06-09 07:09:37 51°14.967 2°50.386 16.2235 4.035842 31.550439 1.47194
2008-06-09 07:09:42 51°14.967 2°50.359 16.2186 4.036464 31.557796 1.437116
2008-06-09 07:09:47 51°14.966 2°50.332 16.217 4.036983 31.563605 1.402292
2008-06-09 07:09:52 51°14.966 2°50.306 16.2143 4.037398 31.5698 1.367467
2008-06-09 07:09:57 51°14.965 2°50.279 16.2118 4.037398 31.5698 1.367467
2008-06-09 07:10:02 51°14.964 2°50.252 16.2103 4.037709 31.575092 1.367467
2008-06-09 07:10:07 51°14.963 2°50.225 16.2093 4.038124 31.58129 1.332643
2008-06-09 07:10:12 51°14.963 2°50.198 16.2095 4.038435 31.585293 1.297819
2008-06-09 07:10:17 51°14.961 2°50.171 16.2098 4.038954 31.592397 1.262995
2008-06-09 07:10:22 51°14.96 2°50.144 16.2096 4.039265 31.598339 1.228171
2008-06-09 07:10:27 51°14.959 2°50.118 16.2086 4.039265 31.598339 1.228171
2008-06-09 07:10:32 51°14.958 2°50.091 16.2074 4.039473 31.602085 1.228171
2008-06-09 07:10:37 51°14.957 2°50.064 16.2066 4.039991 31.608546 1.228171
2008-06-09 07:10:42 51°14.956 2°50.037 16.2044 4.040821 31.617076 1.228171
2008-06-09 07:10:47 51°14.955 2°50.01 16.2009 4.038643 31.59937 1.228171
2008-06-09 07:10:52 51°14.954 2°49.983 16.2011 4.042584 31.63375 1.262995
2008-06-09 07:10:57 51°14.953 2°49.956 16.198 4.042584 31.63375 1.262995
2008-06-09 07:11:02 51°14.952 2°49.929 16.1938 4.04331 31.64073 1.262995
2008-06-09 07:11:07 51°14.951 2°49.902 16.1913 4.043207 31.640472 1.297819
2008-06-09 07:11:12 51°14.949 2°49.875 16.1913 4.04331 31.642024 1.297819
2008-06-09 07:11:17 51°14.948 2°49.848 16.1855 4.043829 31.64849 1.332643
2008-06-09 07:11:22 51°14.946 2°49.821 16.185 4.044036 31.650947 1.332643
2008-06-09 07:11:27 51°14.944 2°49.794 16.1824 4.044036 31.650947 1.332643
2008-06-09 07:11:32 51°14.942 2°49.767 16.1819 4.009913 31.355984 1.367467
2008-06-09 07:11:37 51°14.94 2°49.74 16.1821 4.044659 31.660909 1.367467
2008-06-09 07:11:42 51°14.939 2°49.713 16.1804 4.044866 31.664662 1.402292
2008-06-09 07:11:47 51°14.937 2°49.686 16.1807 4.039888 31.623803 1.402292
2008-06-09 07:11:52 51°14.935 2°49.659 16.1799 4.037917 31.609193 1.402292
2008-06-09 07:11:57 51°14.933 2°49.632 16.1804 4.037917 31.609193 1.402292
2008-06-09 07:12:02 51°14.931 2°49.605 16.1812 4.045281 31.675409 1.402292
2008-06-09 07:12:07 51°14.929 2°49.578 16.1834 4.046007 31.683043 1.367467
2008-06-09 07:12:12 51°14.927 2°49.552 16.1843 4.046007 31.684339 1.367467
2008-06-09 07:12:17 51°14.925 2°49.525 16.1861 4.046837 31.692232 1.367467
2008-06-09 07:12:22 51°14.923 2°49.498 16.1901 4.046733 31.691975 1.367467
2008-06-09 07:12:27 51°14.921 2°49.472 16.1922 4.046733 31.691975 1.367467
2008-06-09 07:12:32 51°14.917 2°49.445 16.1951 4.046733 31.692624 1.367467
2008-06-09 07:12:37 51°14.915 2°49.419 16.1975 4.047978 31.702843 1.367467
2008-06-09 07:12:42 51°14.911 2°49.392 16.1984 4.047874 31.701288 1.402292
2008-06-09 07:12:47 51°14.908 2°49.366 16.1993 4.048704 31.707885 1.402292
2008-06-09 07:12:52 51°14.905 2°49.339 16.1991 4.049949 31.716806 1.367467
2008-06-09 07:12:57 51°14.903 2°49.313 16.1985 4.049949 31.716806 1.367467
2008-06-09 07:13:02 51°14.9 2°49.286 16.1982 4.050052 31.715765 1.367467
2008-06-09 07:13:07 51°14.897 2°49.259 16.1994 4.051505 31.727145 1.332643
2008-06-09 07:13:12 51°14.895 2°49.232 16.1977 4.05306 31.738133 1.332643
2008-06-09 07:13:17 51°14.892 2°49.206 16.1984 4.054201 31.746796 1.297819
2008-06-09 07:13:22 51°14.891 2°49.179 16.1972 4.055239 31.754553 1.297819
2008-06-09 07:13:27 51°14.888 2°49.152 16.1978 4.055239 31.754553 1.297819
2008-06-09 07:13:32 51°14.886 2°49.125 16.1981 4.055965 31.760242 1.297819
2008-06-09 07:13:37 51°14.884 2°49.098 16.1992 4.056898 31.768393 1.228171
2008-06-09 07:13:42 51°14.882 2°49.071 16.1981 4.057935 31.777449 1.262995
2008-06-09 07:13:47 51°14.879 2°49.044 16.1981 4.058765 31.784695 1.262995
2008-06-09 07:13:52 51°14.877 2°49.018 16.1947 4.059699 31.792846 1.262995
2008-06-09 07:13:57 51°14.875 2°48.991 16.1967 4.059699 31.792846 1.262995
2008-06-09 07:14:02 51°14.873 2°48.964 16.1964 4.060321 31.798931 1.228171
2008-06-09 07:14:07 51°14.871 2°48.937 16.1961 4.061047 31.804621 1.228171
2008-06-09 07:14:12 51°14.87 2°48.91 16.1973 4.061669 31.810056 1.193347
2008-06-09 07:14:17 51°14.868 2°48.883 16.1959 4.06281 31.820671 1.193347
2008-06-09 07:14:22 51°14.868 2°48.856 16.1956 4.063744 31.828824 1.158523
2008-06-09 07:14:27 51°14.866 2°48.828 16.1944 4.063744 31.828824 1.158523
2008-06-09 07:14:32 51°14.865 2°48.801 16.1956 4.06447 31.835817 1.123699
2008-06-09 07:14:37 51°14.863 2°48.774 16.1926 4.065196 31.842158 1.088875
2008-06-09 07:14:42 51°14.862 2°48.747 16.1923 4.0653 31.843064 1.088875
2008-06-09 07:14:47 51°14.861 2°48.72 16.1911 4.066648 31.854843 1.123699
2008-06-09 07:14:52 51°14.86 2°48.693 16.1883 4.067478 31.862743 1.123699
2008-06-09 07:14:57 51°14.858 2°48.666 16.1853 4.067478 31.862743 1.123699
2008-06-09 07:15:02 51°14.856 2°48.639 16.1838 4.068204 31.869085 1.088875
2008-06-09 07:15:07 51°14.854 2°48.612 16.1805 4.068515 31.872456 1.088875
2008-06-09 07:15:12 51°14.852 2°48.585 16.179 4.069138 31.877893 1.088875
2008-06-09 07:15:17 51°14.85 2°48.558 16.1786 4.069345 31.881009 1.123699
2008-06-09 07:15:22 51°14.847 2°48.531 16.176 4.069864 31.886845 1.088875
2008-06-09 07:15:27 51°14.845 2°48.504 16.1734 4.069864 31.886845 1.088875
2008-06-09 07:15:32 51°14.843 2°48.477 16.1732 4.070071 31.890615 1.123699
2008-06-09 07:15:37 51°14.84 2°48.451 16.1709 4.070071 31.893225 1.123699
2008-06-09 07:15:42 51°14.838 2°48.424 16.1693 4.070071 31.89453 1.123699
2008-06-09 07:15:47 51°14.835 2°48.397 16.1684 4.070071 31.895835 1.088875
2008-06-09 07:15:52 51°14.833 2°48.37 16.1664 4.069864 31.89598 1.088875
2008-06-09 07:15:57 51°14.831 2°48.343 16.1642 4.069864 31.89598 1.088875
2008-06-09 07:16:02 51°14.828 2°48.316 16.1614 4.069657 31.896126 1.088875
2008-06-09 07:16:07 51°14.827 2°48.289 16.1599 4.069449 31.895618 1.088875
2008-06-09 07:16:12 51°14.824 2°48.262 16.1566 4.069242 31.89511 1.054051
2008-06-09 07:16:17 51°14.822 2°48.235 16.1538 4.069138 31.896162 1.054051
2008-06-09 07:16:22 51°14.82 2°48.208 16.153 4.068827 31.894748 1.054051
2008-06-09 07:16:27 51°14.817 2°48.181 16.1494 4.068827 31.894748 1.054051
2008-06-09 07:16:32 51°14.815 2°48.154 16.1477 4.068723 31.8958 1.054051
2008-06-09 07:16:37 51°14.813 2°48.127 16.1437 4.068619 31.896852 1.054051
2008-06-09 07:16:42 51°14.811 2°48.1 16.142 4.068516 31.897251 1.088875
2008-06-09 07:16:47 51°14.809 2°48.073 16.1415 4.068308 31.897397 1.054051
2008-06-09 07:16:52 51°14.807 2°48.046 16.1393 4.068101 31.898196 1.054051
2008-06-09 07:16:57 51°14.806 2°48.019 16.1382 4.068101 31.898196 1.054051
2008-06-09 07:17:02 51°14.805 2°47.992 16.137 4.067894 31.898995 1.019227
2008-06-09 07:17:07 51°14.804 2°47.964 16.1366 4.067686 31.89914 1.054051
2008-06-09 07:17:12 51°14.802 2°47.937 16.131 4.067686 31.9011 1.054051
2008-06-09 07:17:17 51°14.801 2°47.91 16.1313 4.067686 31.903061 1.054051
2008-06-09 07:17:22 51°14.8 2°47.882 16.1302 4.067479 31.903207 1.019227
2008-06-09 07:17:27 51°14.799 2°47.855 16.1249 4.067479 31.903207 1.019227
2008-06-09 07:17:32 51°14.798 2°47.828 16.124 4.067479 31.904514 1.019227
2008-06-09 07:17:37 51°14.796 2°47.8 16.1205 4.067583 31.907382 1.054051
2008-06-09 07:17:42 51°14.794 2°47.773 16.1187 4.06779 31.911159 0.984403
2008-06-09 07:17:47 51°14.792 2°47.746 16.1163 4.067894 31.913374 1.054051
2008-06-09 07:17:52 51°14.79 2°47.719 16.1142 4.067998 31.916243 1.054051
2008-06-09 07:17:57 51°14.787 2°47.692 16.1089 4.067998 31.916243 1.054051
2008-06-09 07:18:02 51°14.785 2°47.665 16.1075 4.068101 31.919767 1.054051
2008-06-09 07:18:07 51°14.783 2°47.637 16.1019 4.068309 31.923545 1.019227
2008-06-09 07:18:12 51°14.78 2°47.61 16.0991 4.068413 31.92707 1.054051
2008-06-09 07:18:17 51°14.778 2°47.584 16.0996 4.068413 31.929034 1.019227
2008-06-09 07:18:22 51°14.775 2°47.556 16.0978 4.068516 31.93256 1.019227
2008-06-09 07:18:27 51°14.773 2°47.529 16.0953 4.068516 31.93256 1.019227
2008-06-09 07:18:32 51°14.771 2°47.502 16.093 4.06862 31.936087 1.019227
2008-06-09 07:18:37 51°14.769 2°47.475 16.0905 4.068413 31.93689 1.019227
2008-06-09 07:18:42 51°14.767 2°47.448 16.0881 4.068724 31.942889 0.984403
2008-06-09 07:18:47 51°14.766 2°47.421 16.085 4.068724 31.94551 0.984403
2008-06-09 07:18:52 51°14.764 2°47.393 16.0841 4.068724 31.947476 0.984403
2008-06-09 07:18:57 51°14.762 2°47.366 16.08 4.068724 31.947476 0.984403
2008-06-09 07:19:02 51°14.76 2°47.339 16.075 4.068828 31.95035 0.984403
2008-06-09 07:19:07 51°14.758 2°47.312 16.0743 4.069035 31.953477 0.984403
2008-06-09 07:19:12 51°14.756 2°47.284 16.0699 4.069346 31.958169 0.984403
2008-06-09 07:19:17 51°14.754 2°47.257 16.0662 4.06945 31.961701 0.949579
2008-06-09 07:19:22 51°14.752 2°47.23 16.0628 4.069554 31.965233 0.984403
2008-06-09 07:19:27 51°14.75 2°47.203 16.0594 4.069554 31.965233 0.984403
2008-06-09 07:19:32 51°14.748 2°47.176 16.059 4.069658 31.968765 0.949579
2008-06-09 07:19:37 51°14.746 2°47.149 16.0558 4.069658 31.972046 0.949579
2008-06-09 07:19:42 51°14.744 2°47.121 16.0533 4.069658 31.974014 0.914755
2008-06-09 07:19:47 51°14.742 2°47.094 16.0519 4.069865 31.980427 0.914755
2008-06-09 07:19:52 51°14.739 2°47.067 16.0481 4.069762 31.982144 0.914755
2008-06-09 07:19:57 51°14.738 2°47.04 16.046 4.069762 31.982144 0.914755
2008-06-09 07:20:02 51°14.736 2°47.013 16.0436 4.069865 31.98568 0.914755
2008-06-09 07:20:07 51°14.733 2°46.986 16.0416 4.069969 31.989217 0.845107
2008-06-09 07:20:12 51°14.732 2°46.959 16.0382 4.069969 31.991845 0.845107
2008-06-09 07:20:17 51°14.729 2°46.932 16.0375 4.069969 31.993816 0.810283
2008-06-09 07:20:22 51°14.727 2°46.905 16.0354 4.069969 31.995787 0.775459
2008-06-09 07:20:27 51°14.725 2°46.877 16.0335 4.069969 31.995787 0.775459
2008-06-09 07:20:32 51°14.723 2°46.85 16.0309 4.069969 31.997759 0.775459
2008-06-09 07:20:37 51°14.722 2°46.823 16.0272 4.069969 32.001046 0.810283
2008-06-09 07:20:42 51°14.72 2°46.796 16.0283 4.069969 32.003018 0.775459
2008-06-09 07:20:47 51°14.718 2°46.769 16.0247 4.06997 32.005648 0.740634
2008-06-09 07:20:52 51°14.716 2°46.741 16.0199 4.069866 32.006054 0.775459
2008-06-09 07:20:57 51°14.714 2°46.714 16.019 4.069866 32.006054 0.775459
2008-06-09 07:21:02 51°14.712 2°46.687 16.0172 4.069762 32.007117 0.740634
2008-06-09 07:21:07 51°14.71 2°46.66 16.0129 4.069658 32.008839 0.70581
2008-06-09 07:21:12 51°14.708 2°46.633 16.0129 4.069555 32.008587 0.70581
2008-06-09 07:21:17 51°14.706 2°46.606 16.0098 4.069347 32.009399 0.740634
2008-06-09 07:21:22 51°14.704 2°46.578 16.0072 4.069244 32.011121 0.70581
2008-06-09 07:21:27 51°14.702 2°46.551 16.0034 4.069244 32.011121 0.70581
2008-06-09 07:21:32 51°14.701 2°46.524 16.0009 4.06914 32.012843 0.70581
2008-06-09 07:21:37 51°14.699 2°46.497 15.9995 4.069036 32.013907 0.670986
2008-06-09 07:21:42 51°14.697 2°46.47 15.9974 4.068829 32.014062 0.670986
2008-06-09 07:21:47 51°14.695 2°46.443 15.9991 4.068829 32.016037 0.670986
2008-06-09 07:21:52 51°14.694 2°46.415 15.997 4.068829 32.01867 0.636162
2008-06-09 07:21:57 51°14.692 2°46.388 15.9973 4.068829 32.01867 0.636162
2008-06-09 07:22:02 51°14.69 2°46.361 15.995 4.068829 32.020646 0.670986
2008-06-09 07:22:07 51°14.688 2°46.334 15.996 4.068829 32.023939 0.670986
2008-06-09 07:22:12 51°14.687 2°46.307 15.993 4.068829 32.026574 0.636162
2008-06-09 07:22:17 51°14.685 2°46.28 15.9942 4.068829 32.027892 0.636162
2008-06-09 07:22:22 51°14.683 2°46.253 15.9955 4.068725 32.02764 0.601338
2008-06-09 07:22:27 51°14.681 2°46.226 15.9944 4.068725 32.02764 0.601338
2008-06-09 07:22:32 51°14.68 2°46.199 15.996 4.068725 32.028958 0.601338
2008-06-09 07:22:37 51°14.678 2°46.172 15.9959 4.068933 32.031438 0.636162
2008-06-09 07:22:42 51°14.676 2°46.145 15.9961 4.069037 32.033008 0.636162
2008-06-09 07:22:47 51°14.674 2°46.118 15.9943 4.069244 32.035488 0.636162
2008-06-09 07:22:52 51°14.673 2°46.091 15.9949 4.069348 32.036399 0.636162
2008-06-09 07:22:57 51°14.671 2°46.064 15.9932 4.069348 32.036399 0.636162
2008-06-09 07:23:02 51°14.67 2°46.037 15.9948 4.069555 32.03822 0.636162
2008-06-09 07:23:07 51°14.668 2°46.01 15.9931 4.069763 32.039383 0.636162
2008-06-09 07:23:12 51°14.667 2°45.983 15.9932 4.06997 32.041204 0.636162
2008-06-09 07:23:17 51°14.666 2°45.956 15.994 4.070385 32.044847 0.636162
2008-06-09 07:23:22 51°14.665 2°45.929 15.9942 4.070696 32.048239 0.636162
2008-06-09 07:23:27 51°14.664 2°45.901 15.9954 4.070696 32.048239 0.636162
2008-06-09 07:23:32 51°14.663 2°45.874 15.9952 4.070904 32.05006 0.670986
2008-06-09 07:23:37 51°14.662 2°45.847 15.9939 4.071111 32.052541 0.670986
2008-06-09 07:23:42 51°14.662 2°45.82 15.994 4.07163 32.057755 0.670986
2008-06-09 07:23:47 51°14.661 2°45.792 15.9929 4.071941 32.060487 0.70581
2008-06-09 07:23:52 51°14.661 2°45.765 15.9911 4.072356 32.064131 0.70581
2008-06-09 07:23:57 51°14.66 2°45.738 15.9903 4.072356 32.064131 0.70581
2008-06-09 07:24:02 51°14.659 2°45.711 15.9863 4.072875 32.068685 0.70581
2008-06-09 07:24:07 51°14.658 2°45.683 15.9825 4.073186 32.070758 0.670986
2008-06-09 07:24:12 51°14.658 2°45.656 15.9819 4.073912 32.077794 0.670986
2008-06-09 07:24:17 51°14.657 2°45.629 15.9783 4.074534 32.08326 0.740634
2008-06-09 07:24:22 51°14.656 2°45.601 15.9755 4.075157 32.089386 0.670986
2008-06-09 07:24:27 51°14.655 2°45.574 15.9751 4.075157 32.089386 0.670986
2008-06-09 07:24:32 51°14.654 2°45.546 15.9742 4.075779 32.096173 0.670986
2008-06-09 07:24:37 51°14.652 2°45.519 15.9706 4.076505 32.104532 0.670986
2008-06-09 07:24:42 51°14.651 2°45.492 15.9662 4.077542 32.116288 0.670986
2008-06-09 07:24:47 51°14.65 2°45.464 15.9668 4.078269 32.12465 0.670986
2008-06-09 07:24:52 51°14.648 2°45.437 15.965 4.078787 32.131191 0.636162
2008-06-09 07:24:57 51°14.647 2°45.409 15.9655 4.078787 32.131191 0.636162
2008-06-09 07:25:02 51°14.646 2°45.382 15.9633 4.079098 32.13591 0.636162
2008-06-09 07:25:07 51°14.645 2°45.354 15.9642 4.07941 32.14063 0.636162
2008-06-09 07:25:12 51°14.643 2°45.327 15.9626 4.079721 32.14535 0.601338
2008-06-09 07:25:17 51°14.642 2°45.299 15.9612 4.080032 32.150071 0.566514
2008-06-09 07:25:22 51°14.64 2°45.272 15.9602 4.080136 32.152306 0.566514
2008-06-09 07:25:27 51°14.639 2°45.244 15.9576 4.080136 32.152306 0.566514
2008-06-09 07:25:32 51°14.637 2°45.217 15.9591 4.080343 32.155454 0.566514
2008-06-09 07:25:37 51°14.636 2°45.189 15.9601 4.080447 32.157691 0.566514
2008-06-09 07:25:42 51°14.634 2°45.162 15.9594 4.080551 32.159927 0.566514
2008-06-09 07:25:47 51°14.632 2°45.135 15.9571 4.080655 32.161501 0.601338
2008-06-09 07:25:52 51°14.63 2°45.107 15.9575 4.080655 32.162826 0.566514
2008-06-09 07:25:57 51°14.627 2°45.08 15.9565 4.080655 32.162826 0.566514
2008-06-09 07:26:02 51°14.625 2°45.053 15.9564 4.080758 32.164401 0.566514
2008-06-09 07:26:07 51°14.622 2°45.026 15.9553 4.080655 32.164151 0.566514
2008-06-09 07:26:12 51°14.617 2°44.999 15.9588 4.080551 32.163239 0.566514
2008-06-09 07:26:17 51°14.613 2°44.973 15.9567 4.080551 32.163902 0.566514
2008-06-09 07:26:22 51°14.606 2°44.948 15.9572 4.080551 32.164564 0.566514
2008-06-09 07:26:27 51°14.599 2°44.923 15.9586 4.080551 32.164564 0.566514
2008-06-09 07:26:32 51°14.592 2°44.898 15.9605 4.080447 32.164315 0.566514
2008-06-09 07:26:37 51°14.584 2°44.874 15.9598 4.080447 32.164977 0.566514
2008-06-09 07:26:42 51°14.576 2°44.85 15.9589 4.080343 32.164065 0.53169
2008-06-09 07:26:47 51°14.567 2°44.826 15.9576 4.08024 32.163816 0.566514
2008-06-09 07:26:52 51°14.558 2°44.803 15.9586 4.080343 32.164065 0.566514
2008-06-09 07:26:57 51°14.549 2°44.78 15.9576 4.080343 32.164065 0.566514
2008-06-09 07:27:02 51°14.539 2°44.757 15.9589 4.08024 32.163153 0.53169
2008-06-09 07:27:07 51°14.529 2°44.734 15.9592 4.080136 32.161579 0.53169
2008-06-09 07:27:12 51°14.52 2°44.711 15.9586 4.080136 32.161579 0.53169
2008-06-09 07:27:17 51°14.51 2°44.689 15.9586 4.080136 32.161579 0.496866
2008-06-09 07:27:22 51°14.501 2°44.666 15.9585 4.080032 32.160667 0.53169
2008-06-09 07:27:27 51°14.491 2°44.643 15.9575 4.080032 32.160667 0.53169
2008-06-09 07:27:32 51°14.481 2°44.621 15.957 4.080136 32.161579 0.53169
2008-06-09 07:27:37 51°14.472 2°44.598 15.9576 4.08024 32.162491 0.496866
2008-06-09 07:27:42 51°14.462 2°44.575 15.9559 4.080343 32.163403 0.53169
2008-06-09 07:27:47 51°14.452 2°44.552 15.9565 4.080447 32.163652 0.496866
2008-06-09 07:27:52 51°14.443 2°44.529 15.9557 4.080551 32.164564 0.53169
2008-06-09 07:27:57 51°14.433 2°44.507 15.9567 4.080551 32.164564 0.53169
2008-06-09 07:28:02 51°14.424 2°44.483 15.9565 4.080655 32.166139 0.462042
2008-06-09 07:28:07 51°14.414 2°44.46 15.9545 4.080862 32.167963 0.496866
2008-06-09 07:28:12 51°14.405 2°44.437 15.9537 4.080966 32.168875 0.496866
2008-06-09 07:28:17 51°14.396 2°44.414 15.9541 4.08107 32.17045 0.496866
2008-06-09 07:28:22 51°14.387 2°44.39 15.9531 4.081277 32.172937 0.496866
2008-06-09 07:28:27 51°14.378 2°44.366 15.9524 4.081277 32.172937 0.496866
2008-06-09 07:28:32 51°14.369 2°44.343 15.9522 4.081381 32.173849 0.462042
2008-06-09 07:28:37 51°14.36 2°44.319 15.9503 4.081692 32.177248 0.496866
2008-06-09 07:28:42 51°14.352 2°44.294 15.9517 4.081899 32.179072 0.462042
2008-06-09 07:28:47 51°14.343 2°44.27 15.9492 4.082107 32.181559 0.462042
2008-06-09 07:28:52 51°14.335 2°44.246 15.9495 4.082522 32.185871 0.496866
2008-06-09 07:28:57 51°14.326 2°44.222 15.9512 4.082522 32.185871 0.496866
2008-06-09 07:29:02 51°14.317 2°44.199 15.9531 4.082729 32.187695 0.496866
2008-06-09 07:29:07 51°14.308 2°44.175 15.9522 4.08304 32.191095 0.496866
2008-06-09 07:29:12 51°14.299 2°44.151 15.9506 4.083455 32.195408 0.462042
2008-06-09 07:29:17 51°14.29 2°44.128 15.9507 4.083974 32.200632 0.462042
2008-06-09 07:29:22 51°14.281 2°44.104 15.9523 4.084389 32.204945 0.462042
2008-06-09 07:29:27 51°14.271 2°44.081 15.9502 4.084389 32.204945 0.462042
2008-06-09 07:29:32 51°14.262 2°44.057 15.9531 4.0847 32.207682 0.462042
2008-06-09 07:29:37 51°14.253 2°44.034 15.9527 4.085219 32.210917 0.462042
2008-06-09 07:29:42 51°14.244 2°44.01 15.9522 4.085737 32.215479 0.427218
2008-06-09 07:29:47 51°14.234 2°43.988 15.9514 4.086567 32.222778 0.427218
2008-06-09 07:29:52 51°14.225 2°43.965 15.9502 4.087086 32.22734 0.392394
2008-06-09 07:29:57 51°14.215 2°43.942 15.9522 4.087086 32.22734 0.392394
2008-06-09 07:30:02 51°14.205 2°43.919 15.9524 4.087708 32.232814 0.392394
2008-06-09 07:30:07 51°14.195 2°43.896 15.9523 4.088227 32.236712 0.392394
2008-06-09 07:30:12 51°14.186 2°43.873 15.952 4.074742 32.118129 0.392394
2008-06-09 07:30:17 51°14.176 2°43.851 15.9534 4.089368 32.247413 0.392394
2008-06-09 07:30:22 51°14.166 2°43.828 15.9515 4.090094 32.253801 0.392394
2008-06-09 07:30:27 51°14.156 2°43.805 15.9532 4.090094 32.253801 0.392394
2008-06-09 07:30:32 51°14.146 2°43.782 15.9549 4.090613 32.258364 0.35757
2008-06-09 07:30:37 51°14.136 2°43.759 15.9552 4.091132 32.262927 0.35757
2008-06-09 07:30:42 51°14.126 2°43.737 15.9568 4.09165 32.267489 0.322746
2008-06-09 07:30:47 51°14.116 2°43.713 15.9579 4.092169 32.272052 0.322746
2008-06-09 07:30:52 51°14.106 2°43.691 15.9586 4.092791 32.277528 0.322746
2008-06-09 07:30:57 51°14.097 2°43.668 15.9596 4.092791 32.277528 0.322746
2008-06-09 07:31:02 51°14.087 2°43.645 15.9615 4.093414 32.282339 0.322746
2008-06-09 07:31:07 51°14.077 2°43.622 15.9614 4.093932 32.286902 0.322746
2008-06-09 07:31:12 51°14.067 2°43.599 15.9614 4.094658 32.29196 0.322746
2008-06-09 07:31:17 51°14.057 2°43.577 15.9624 4.095177 32.295858 0.322746
2008-06-09 07:31:22 51°14.047 2°43.554 15.962 4.08553 32.210336 0.322746
2008-06-09 07:31:27 51°14.037 2°43.531 15.9612 4.08553 32.210336 0.322746
2008-06-09 07:31:32 51°14.027 2°43.508 15.9615 4.096837 32.308464 0.322746
2008-06-09 07:31:37 51°14.017 2°43.486 15.963 4.097667 32.314434 0.287922
2008-06-09 07:31:42 51°14.007 2°43.463 15.9615 4.098704 32.322894 0.287922
2008-06-09 07:31:47 51°13.997 2°43.44 15.9617 4.09943 32.328617 0.287922
2008-06-09 07:31:52 51°13.987 2°43.418 15.9608 4.100467 32.337744 0.287922
2008-06-09 07:31:57 51°13.977 2°43.395 15.9601 4.100467 32.337744 0.287922
2008-06-09 07:32:02 51°13.967 2°43.373 15.9606 4.101401 32.345959 0.253098
2008-06-09 07:32:07 51°13.957 2°43.35 15.9598 4.102335 32.354174 0.287922
2008-06-09 07:32:12 51°13.946 2°43.327 15.9585 4.103164 32.360809 0.287922
2008-06-09 07:32:17 51°13.937 2°43.305 15.959 4.103891 32.367199 0.287922
2008-06-09 07:32:22 51°13.926 2°43.281 15.9575 4.104824 32.376082 0.253098
2008-06-09 07:32:27 51°13.917 2°43.259 15.9577 4.104824 32.376082 0.253098
2008-06-09 07:32:32 51°13.906 2°43.236 15.9577 4.105343 32.380646 0.287922
2008-06-09 07:32:37 51°13.897 2°43.213 15.9574 4.106277 32.388862 0.253098
2008-06-09 07:32:42 51°13.887 2°43.191 15.955 4.10721 32.397746 0.253098
2008-06-09 07:32:47 51°13.876 2°43.168 15.953 4.108351 32.408457 0.253098
2008-06-09 07:32:52 51°13.867 2°43.146 15.9521 4.109181 32.415762 0.253098
2008-06-09 07:32:57 51°13.857 2°43.123 15.9496 4.109181 32.415762 0.253098
2008-06-09 07:33:02 51°13.846 2°43.101 15.9456 4.110218 32.425561 0.253098
2008-06-09 07:33:07 51°13.836 2°43.079 15.945 4.110841 32.431708 0.253098
2008-06-09 07:33:12 51°13.825 2°43.057 15.945 4.111671 32.439013 0.218274
2008-06-09 07:33:17 51°13.815 2°43.035 15.9442 4.112708 32.449483 0.253098
2008-06-09 07:33:22 51°13.803 2°43.014 15.9446 4.113642 32.45904 0.218274
2008-06-09 07:33:27 51°13.793 2°42.992 15.9416 4.113642 32.45904 0.218274
2008-06-09 07:33:32 51°13.782 2°42.971 15.941 4.114679 32.469512 0.218274
2008-06-09 07:33:37 51°13.771 2°42.949 15.9414 4.11582 32.482238 0.218274
2008-06-09 07:33:42 51°13.761 2°42.927 15.9403 4.11665 32.490886 0.18345
2008-06-09 07:33:47 51°13.75 2°42.905 15.9397 4.117377 32.498621 0.18345
2008-06-09 07:33:52 51°13.74 2°42.883 15.9394 4.118206 32.506601 0.148626
2008-06-09 07:33:57 51°13.73 2°42.86 15.9364 4.118206 32.506601 0.148626
2008-06-09 07:34:02 51°13.72 2°42.837 15.9348 4.118933 32.514337 0.18345
2008-06-09 07:34:07 51°13.71 2°42.815 15.934 4.119763 32.522318 0.148626
2008-06-09 07:34:12 51°13.7 2°42.792 15.9333 4.120592 32.5303 0.113802
2008-06-09 07:34:17 51°13.69 2°42.769 15.9327 4.121422 32.538282 0.148626
2008-06-09 07:34:22 51°13.68 2°42.746 15.9321 4.122149 32.545351 0.113802
2008-06-09 07:34:27 51°13.67 2°42.723 15.9307 4.122149 32.545351 0.113802
2008-06-09 07:34:32 51°13.66 2°42.7 15.9304 4.122978 32.553335 0.113802
2008-06-09 07:34:37 51°13.65 2°42.677 15.9306 4.123808 32.56199 0.078977
2008-06-09 07:34:42 51°13.641 2°42.654 15.9278 4.124535 32.569732 0.113802
2008-06-09 07:34:47 51°13.631 2°42.631 15.9261 4.125365 32.578389 0.113802
2008-06-09 07:34:52 51°13.621 2°42.608 15.9251 4.125883 32.583632 0.113802
2008-06-09 07:34:57 51°13.611 2°42.585 15.9235 4.125883 32.583632 0.113802
2008-06-09 07:35:02 51°13.601 2°42.562 15.9231 4.126817 32.593206 0.113802
2008-06-09 07:35:07 51°13.591 2°42.54 15.9229 4.127439 32.599364 0.113802
2008-06-09 07:35:12 51°13.581 2°42.517 15.9198 4.127958 32.604609 0.113802
2008-06-09 07:35:17 51°13.571 2°42.494 15.9193 4.128892 32.614184 0.078977
2008-06-09 07:35:22 51°13.561 2°42.471 15.918 4.129722 32.622174 0.113802
2008-06-09 07:35:27 51°13.55 2°42.45 15.9178 4.129722 32.622174 0.113802
2008-06-09 07:35:32 51°13.54 2°42.427 15.9174 4.130655 32.631751 0.113802
2008-06-09 07:35:37 51°13.529 2°42.405 15.9152 4.131278 32.638586 0.113802
2008-06-09 07:35:42 51°13.518 2°42.383 15.9176 4.132108 32.646577 0.113802
2008-06-09 07:35:47 51°13.507 2°42.362 15.9179 4.132938 32.655242 0.113802
2008-06-09 07:35:52 51°13.496 2°42.34 15.9165 4.133768 32.663909 0.113802
2008-06-09 07:35:57 51°13.485 2°42.319 15.9148 4.133768 32.663909 0.113802
2008-06-09 07:36:02 51°13.474 2°42.297 15.9147 4.134701 32.673492 0.078977
2008-06-09 07:36:07 51°13.463 2°42.276 15.914 4.135635 32.681727 0.078977
2008-06-09 07:36:12 51°13.452 2°42.254 15.9137 4.136465 32.689722 0.078977
2008-06-09 07:36:17 51°13.441 2°42.232 15.91 4.137191 32.696802 0.078977
2008-06-09 07:36:22 51°13.431 2°42.21 15.91 4.138229 32.705953 0.078977
2008-06-09 07:36:27 51°13.42 2°42.188 15.9072 4.138229 32.705953 0.078977
2008-06-09 07:36:32 51°13.41 2°42.166 15.9048 4.139059 32.713275 0.078977
2008-06-09 07:36:37 51°13.399 2°42.143 15.9039 4.140096 32.723102 0.044153
2008-06-09 07:36:42 51°13.389 2°42.121 15.9042 4.141133 32.733606 0.078977
2008-06-09 07:36:47 51°13.379 2°42.098 15.9016 4.141963 32.741605 0.078977
2008-06-09 07:36:52 51°13.368 2°42.076 15.8974 4.14269 32.748688 0.078977
2008-06-09 07:36:57 51°13.358 2°42.054 15.8975 4.14269 32.748688 0.078977
2008-06-09 07:37:02 51°13.347 2°42.031 15.8923 4.143416 32.756448 0.078977
2008-06-09 07:37:07 51°13.337 2°42.009 15.8919 4.144038 32.76397 0.078977
2008-06-09 07:37:12 51°13.326 2°41.987 15.889 4.144453 32.768984 0.113802
2008-06-09 07:37:17 51°13.316 2°41.965 15.8881 4.145076 32.776508 0.113802
2008-06-09 07:37:22 51°13.305 2°41.942 15.8838 4.14601 32.786779 0.078977
2008-06-09 07:37:27 51°13.295 2°41.92 15.8848 4.14601 32.786779 0.078977
2008-06-09 07:37:32 51°13.285 2°41.897 15.8821 4.146528 32.793389 0.113802
2008-06-09 07:37:37 51°13.274 2°41.875 15.881 4.147462 32.803664 0.113802
2008-06-09 07:37:42 51°13.264 2°41.853 15.8783 4.1485 32.814856 0.113802
2008-06-09 07:37:47 51°13.253 2°41.83 15.8792 4.149122 32.823064 0.113802
2008-06-09 07:37:52 51°13.243 2°41.808 15.8787 4.149848 32.830833 0.148626
2008-06-09 07:37:57 51°13.233 2°41.785 15.8779 4.149848 32.830833 0.148626
2008-06-09 07:38:02 51°13.222 2°41.763 15.88 4.150471 32.838365 0.18345
2008-06-09 07:38:07 51°13.212 2°41.741 15.8764 4.151197 32.846136 0.148626
2008-06-09 07:38:12 51°13.202 2°41.718 15.8766 4.15182 32.852991 0.148626
2008-06-09 07:38:17 51°13.191 2°41.696 15.8734 4.152131 32.857098 0.148626
2008-06-09 07:38:22 51°13.181 2°41.674 15.8732 4.152753 32.863276 0.148626
2008-06-09 07:38:27 51°13.171 2°41.651 15.8715 4.152753 32.863276 0.148626
2008-06-09 07:38:32 51°13.161 2°41.628 15.8729 4.153168 32.8683 0.148626
2008-06-09 07:38:37 51°13.151 2°41.605 15.8708 4.153687 32.872883 0.18345
2008-06-09 07:38:42 51°13.14 2°41.583 15.869 4.154206 32.878145 0.18345
2008-06-09 07:38:47 51°13.13 2°41.56 15.8659 4.154828 32.885004 0.218274
2008-06-09 07:38:52 51°13.12 2°41.538 15.8665 4.155658 32.893697 0.218274
2008-06-09 07:38:57 51°13.11 2°41.515 15.8621 4.155658 32.893697 0.218274
2008-06-09 07:39:02 51°13.099 2°41.493 15.8608 4.156281 32.899877 0.218274
2008-06-09 07:39:07 51°13.089 2°41.47 15.859 4.157007 32.907655 0.218274
2008-06-09 07:39:12 51°13.079 2°41.448 15.8566 4.157837 32.916351 0.218274
2008-06-09 07:39:17 51°13.068 2°41.425 15.8528 4.158771 32.925964 0.253098
2008-06-09 07:39:22 51°13.058 2°41.403 15.8504 4.159601 32.934662 0.218274
2008-06-09 07:39:27 51°13.048 2°41.38 15.8473 4.159601 32.934662 0.218274
2008-06-09 07:39:32 51°13.038 2°41.358 15.8466 4.160327 32.942444 0.253098
2008-06-09 07:39:37 51°13.028 2°41.335 15.8472 4.161053 32.950907 0.287922
2008-06-09 07:39:42 51°13.017 2°41.313 15.8428 4.161987 32.960525 0.287922
2008-06-09 07:39:47 51°13.007 2°41.29 15.8379 4.163024 32.971743 0.287922
2008-06-09 07:39:52 51°12.997 2°41.267 15.8344 4.163855 32.981809 0.287922
2008-06-09 07:39:57 51°12.987 2°41.245 15.8345 4.163855 32.981809 0.287922
2008-06-09 07:40:02 51°12.977 2°41.222 15.8338 4.1651 32.995549 0.322746
2008-06-09 07:40:07 51°12.966 2°41.2 15.8333 4.166033 33.005855 0.322746
2008-06-09 07:40:12 51°12.957 2°41.177 15.8312 4.167175 33.017999 0.35757
2008-06-09 07:40:17 51°12.946 2°41.154 15.8294 4.167901 33.026473 0.35757
2008-06-09 07:40:22 51°12.936 2°41.131 15.8288 4.16925 33.04114 0.392394
2008-06-09 07:40:27 51°12.926 2°41.109 15.826 4.16925 33.04114 0.392394
2008-06-09 07:40:32 51°12.916 2°41.086 15.8253 4.170495 33.054892 0.392394
2008-06-09 07:40:37 51°12.906 2°41.063 15.8232 4.171428 33.064524 0.392394
2008-06-09 07:40:42 51°12.896 2°41.04 15.8228 4.172258 33.073238 0.427218
2008-06-09 07:40:47 51°12.885 2°41.018 15.8201 4.173088 33.082638 0.392394
2008-06-09 07:40:52 51°12.875 2°40.995 15.8195 4.174022 33.092274 0.427218
2008-06-09 07:40:57 51°12.865 2°40.973 15.818 4.174022 33.092274 0.427218
2008-06-09 07:41:02 51°12.855 2°40.95 15.8178 4.174645 33.099155 0.427218
2008-06-09 07:41:07 51°12.845 2°40.927 15.8172 4.175579 33.108792 0.462042
2008-06-09 07:41:12 51°12.834 2°40.905 15.8172 4.176305 33.116593 0.462042
2008-06-09 07:41:17 51°12.824 2°40.882 15.8163 4.177031 33.125081 0.496866
2008-06-09 07:41:22 51°12.814 2°40.859 15.8163 4.177965 33.134722 0.496866
2008-06-09 07:41:27 51°12.804 2°40.837 15.8149 4.177965 33.134722 0.496866
2008-06-09 07:41:32 51°12.794 2°40.814 15.8148 4.178587 33.141607 0.496866
2008-06-09 07:41:37 51°12.784 2°40.791 15.8096 4.179314 33.148726 0.53169
2008-06-09 07:41:42 51°12.774 2°40.768 15.8087 4.179832 33.154007 0.53169
2008-06-09 07:41:47 51°12.764 2°40.745 15.8091 4.180559 33.16044 0.53169
2008-06-09 07:41:52 51°12.754 2°40.722 15.8068 4.181078 33.165722 0.53169
2008-06-09 07:41:57 51°12.744 2°40.699 15.8057 4.181078 33.165722 0.53169
2008-06-09 07:42:02 51°12.734 2°40.676 15.8025 4.181493 33.170085 0.53169
2008-06-09 07:42:07 51°12.724 2°40.653 15.8006 4.182011 33.176054 0.53169
2008-06-09 07:42:12 51°12.714 2°40.631 15.8024 4.18253 33.182711 0.53169
2008-06-09 07:42:17 51°12.704 2°40.608 15.7982 4.183049 33.187994 0.566514
2008-06-09 07:42:22 51°12.694 2°40.585 15.7976 4.18336 33.192127 0.53169
2008-06-09 07:42:27 51°12.684 2°40.562 15.796 4.18336 33.192127 0.53169
2008-06-09 07:42:32 51°12.675 2°40.539 15.7894 4.183775 33.197179 0.53169
2008-06-09 07:42:37 51°12.665 2°40.516 15.7883 4.184294 33.203838 0.566514
2008-06-09 07:42:42 51°12.656 2°40.492 15.7868 4.185124 33.212569 0.566514
2008-06-09 07:42:47 51°12.646 2°40.469 15.7857 4.185954 33.221302 0.566514
2008-06-09 07:42:52 51°12.637 2°40.445 15.778 4.187095 33.232795 0.636162
2008-06-09 07:42:57 51°12.627 2°40.422 15.7742 4.187095 33.232795 0.636162
2008-06-09 07:43:02 51°12.618 2°40.398 15.7702 4.188029 33.243138 0.670986
2008-06-09 07:43:07 51°12.609 2°40.374 15.7673 4.189482 33.258771 0.70581
2008-06-09 07:43:12 51°12.6 2°40.35 15.7672 4.190623 33.270958 0.70581
2008-06-09 07:43:17 51°12.591 2°40.326 15.7629 4.191661 33.282227 0.775459
2008-06-09 07:43:22 51°12.582 2°40.303 15.7604 4.193425 33.302009 0.845107
2008-06-09 07:43:27 51°12.572 2°40.279 15.7587 4.193425 33.302009 0.845107
2008-06-09 07:43:32 51°12.563 2°40.255 15.7564 4.194773 33.317426 0.914755
2008-06-09 07:43:37 51°12.554 2°40.232 15.7525 4.196122 33.332846 0.914755
2008-06-09 07:43:42 51°12.544 2°40.208 15.7522 4.196952 33.343666 1.019227
2008-06-09 07:43:47 51°12.534 2°40.185 15.7497 4.197679 33.352185 1.054051
2008-06-09 07:43:52 51°12.525 2°40.162 15.749 4.198716 33.363469 1.054051
2008-06-09 07:43:57 51°12.515 2°40.139 15.748 4.198716 33.363469 1.054051
2008-06-09 07:44:02 51°12.505 2°40.116 15.7457 4.199546 33.373604 1.193347
2008-06-09 07:44:07 51°12.495 2°40.093 15.7431 4.200584 33.385583 1.262995
2008-06-09 07:44:12 51°12.485 2°40.071 15.7398 4.201518 33.395951 1.297819
2008-06-09 07:44:17 51°12.474 2°40.049 15.7376 4.20214 33.40425 1.367467
2008-06-09 07:44:22 51°12.463 2°40.028 15.7302 4.203074 33.414621 1.402292
2008-06-09 07:44:27 51°12.452 2°40.006 15.7305 4.203074 33.414621 1.402292
2008-06-09 07:44:32 51°12.441 2°39.985 15.7287 4.204112 33.425222 1.437116
2008-06-09 07:44:37 51°12.43 2°39.964 15.7217 4.205046 33.435597 1.576412
2008-06-09 07:44:42 51°12.419 2°39.943 15.716 4.205876 33.445051 1.680884
2008-06-09 07:44:47 51°12.408 2°39.922 15.716 4.206706 33.454507 1.785356
2008-06-09 07:44:52 51°12.396 2°39.901 15.7102 4.207432 33.464431 1.889828
2008-06-09 07:44:57 51°12.385 2°39.88 15.7051 4.207432 33.464431 1.889828
2008-06-09 07:45:02 51°12.374 2°39.859 15.7039 4.208262 33.474585 1.924652
2008-06-09 07:45:07 51°12.363 2°39.838 15.6952 4.20847 33.479208 2.063949
2008-06-09 07:45:12 51°12.352 2°39.817 15.6925 4.208989 33.487293 2.098773
2008-06-09 07:45:17 51°12.341 2°39.796 15.6795 4.209611 33.497693 2.203245
2008-06-09 07:45:22 51°12.33 2°39.775 15.6751 4.210027 33.504861 2.238069
2008-06-09 07:45:27 51°12.319 2°39.754 15.6696 4.210027 33.504861 2.238069
2008-06-09 07:45:32 51°12.308 2°39.734 15.6669 4.210234 33.510184 2.342541
2008-06-09 07:45:37 51°12.297 2°39.713 15.6631 4.210338 33.514586 2.342541
2008-06-09 07:45:42 51°12.287 2°39.692 15.6577 4.210442 33.521077 2.481837
2008-06-09 07:45:47 51°12.276 2°39.67 15.6529 4.210442 33.525951 2.586309
2008-06-09 07:45:52 51°12.266 2°39.648 15.6489 4.210442 33.532917 2.621133
2008-06-09 07:45:57 51°12.255 2°39.627 15.6469 4.210442 33.532917 2.621133
2008-06-09 07:46:02 51°12.245 2°39.605 15.6418 4.210442 33.539188 2.621133
2008-06-09 07:46:07 51°12.235 2°39.584 15.6412 4.210027 33.540374 2.690782
2008-06-09 07:46:12 51°12.224 2°39.562 15.6404 4.209716 33.542484 2.76043
2008-06-09 07:46:17 51°12.214 2°39.541 15.637 4.209508 33.544821 2.76043
2008-06-09 07:46:22 51°12.204 2°39.519 15.6332 4.209197 33.547629 2.830078
2008-06-09 07:46:27 51°12.193 2°39.498 15.6325 4.209197 33.547629 2.830078
2008-06-09 07:46:32 51°12.183 2°39.476 15.632 4.208782 33.54812 2.864902
2008-06-09 07:46:37 51°12.172 2°39.455 15.631 4.208471 33.548139 2.899726
2008-06-09 07:46:42 51°12.162 2°39.432 15.6312 4.208056 33.547234 2.93455
2008-06-09 07:46:47 51°12.151 2°39.411 15.6294 4.207745 33.546555 2.93455
2008-06-09 07:46:52 51°12.141 2°39.389 15.63 4.207434 33.546574 2.969374
2008-06-09 07:46:57 51°12.131 2°39.366 15.6269 4.207434 33.546574 2.969374
2008-06-09 07:47:02 51°12.122 2°39.344 15.6262 4.206915 33.544046 3.004198
2008-06-09 07:47:07 51°12.112 2°39.321 15.6264 4.206707 33.544292 3.039022
2008-06-09 07:47:12 51°12.102 2°39.298 15.6244 4.206396 33.542915 3.039022
2008-06-09 07:47:17 51°12.093 2°39.276 15.6243 4.206085 33.540839 3.039022
2008-06-09 07:47:22 51°12.083 2°39.253 15.6252 4.205774 33.538764 3.10867
2008-06-09 07:47:27 51°12.073 2°39.231 15.6235 4.205774 33.538764 3.10867
2008-06-09 07:47:32 51°12.063 2°39.208 15.6198 4.205462 33.536689 3.143494
2008-06-09 07:47:37 51°12.053 2°39.186 15.6189 4.205255 33.536236 3.143494
2008-06-09 07:47:42 51°12.042 2°39.164 15.622 4.20484 33.533934 3.178318
2008-06-09 07:47:47 51°12.032 2°39.143 15.6221 4.204736 33.533708 3.213142
2008-06-09 07:47:52 51°12.022 2°39.12 15.6226 4.204529 33.532557 3.28279
2008-06-09 07:47:57 51°12.012 2°39.098 15.6265 4.204529 33.532557 3.28279
2008-06-09 07:48:02 51°12.001 2°39.076 15.6272 4.204321 33.531406 3.28279
2008-06-09 07:48:07 51°11.991 2°39.054 15.6293 4.204217 33.531877 3.317614
2008-06-09 07:48:12 51°11.981 2°39.032 15.6334 4.20401 33.531424 3.28279
2008-06-09 07:48:17 51°11.971 2°39.01 15.6351 4.20401 33.531424 3.352439
2008-06-09 07:48:22 51°11.96 2°38.989 15.6387 4.203906 33.529801 3.317614
2008-06-09 07:48:27 51°11.949 2°38.967 15.6375 4.203906 33.529801 3.317614
2008-06-09 07:48:32 51°11.938 2°38.946 15.6403 4.203906 33.528405 3.317614
2008-06-09 07:48:37 51°11.927 2°38.925 15.6429 4.203699 33.525161 3.317614
2008-06-09 07:48:42 51°11.916 2°38.905 15.6434 4.203595 33.522143 3.352439
2008-06-09 07:48:47 51°11.905 2°38.884 15.6472 4.203283 33.517277 3.28279
2008-06-09 07:48:52 51°11.894 2°38.863 15.6461 4.203076 33.514033 3.247966
2008-06-09 07:48:57 51°11.883 2°38.842 15.6462 4.203076 33.514033 3.247966
2008-06-09 07:49:02 51°11.872 2°38.821 15.645 4.202765 33.509168 3.247966
2008-06-09 07:49:07 51°11.861 2°38.8 15.6454 4.202557 33.505228 3.213142
2008-06-09 07:49:12 51°11.85 2°38.779 15.6437 4.202142 33.500138 3.247966
2008-06-09 07:49:17 51°11.839 2°38.758 15.6452 4.201831 33.495275 3.143494
2008-06-09 07:49:22 51°11.828 2°38.737 15.6441 4.201416 33.490185 3.10867
2008-06-09 07:49:27 51°11.817 2°38.716 15.6411 4.201416 33.490185 3.10867
2008-06-09 07:49:32 51°11.806 2°38.695 15.6418 4.201104 33.486717 3.039022
2008-06-09 07:49:37 51°11.795 2°38.674 15.6411 4.200689 33.482324 3.073846
2008-06-09 07:49:42 51°11.784 2°38.654 15.6405 4.200378 33.480249 3.039022
2008-06-09 07:49:47 51°11.773 2°38.633 15.6415 4.200067 33.477477 3.004198
2008-06-09 07:49:52 51°11.762 2°38.612 15.6384 4.199652 33.474478 3.004198
2008-06-09 07:49:57 51°11.751 2°38.591 15.638 4.199652 33.474478 3.004198
2008-06-09 07:50:02 51°11.74 2°38.57 15.6387 4.199341 33.472403 2.93455
2008-06-09 07:50:07 51°11.729 2°38.55 15.6386 4.199029 33.469631 2.93455
2008-06-09 07:50:12 51°11.718 2°38.529 15.6397 4.198926 33.469403 2.830078
2008-06-09 07:50:17 51°11.707 2°38.508 15.6414 4.198822 33.469176 2.76043
2008-06-09 07:50:22 51°11.696 2°38.487 15.6436 4.198614 33.468024 2.725606
2008-06-09 07:50:27 51°11.685 2°38.466 15.6455 4.198614 33.468024 2.725606
2008-06-09 07:50:32 51°11.675 2°38.445 15.6454 4.197784 33.461329 2.725606
2008-06-09 07:50:37 51°11.664 2°38.424 15.6465 4.197681 33.460405 2.655957
2008-06-09 07:50:42 51°11.653 2°38.403 15.6495 4.197266 33.45671 2.621133
2008-06-09 07:50:47 51°11.642 2°38.382 15.6516 4.197577 33.459481 2.621133
2008-06-09 07:50:52 51°11.631 2°38.361 15.6555 4.197888 33.460861 2.586309
2008-06-09 07:50:57 51°11.621 2°38.34 15.6613 4.197888 33.460861 2.586309
2008-06-09 07:51:02 51°11.61 2°38.319 15.6647 4.19768 33.458317 2.551485
2008-06-09 07:51:07 51°11.599 2°38.298 15.6674 4.197784 33.457849 2.516661
2008-06-09 07:51:12 51°11.589 2°38.277 15.6744 4.198095 33.459228 2.516661
2008-06-09 07:51:17 51°11.578 2°38.256 15.6767 4.197784 33.454369 2.516661
2008-06-09 07:51:22 51°11.567 2°38.235 15.6801 4.198407 33.457823 2.481837
2008-06-09 07:51:27 51°11.556 2°38.214 15.6835 4.198407 33.457823 2.481837
2008-06-09 07:51:32 51°11.546 2°38.193 15.6872 4.198199 33.453193 2.447013
2008-06-09 07:51:37 51°11.535 2°38.172 15.6898 4.198095 33.448095 2.412189
2008-06-09 07:51:42 51°11.524 2°38.151 15.6913 4.197888 33.442076 2.481837
2008-06-09 07:51:47 51°11.514 2°38.13 15.6932 4.198303 33.441598 2.447013
2008-06-09 07:51:52 51°11.503 2°38.109 15.6957 4.197991 33.436048 2.447013
2008-06-09 07:51:57 51°11.492 2°38.088 15.6961 4.197991 33.436048 2.447013
2008-06-09 07:52:02 51°11.482 2°38.067 15.6971 4.197576 33.428186 2.412189
2008-06-09 07:52:07 51°11.471 2°38.046 15.7025 4.197369 33.423562 2.447013
2008-06-09 07:52:12 51°11.46 2°38.025 15.7047 4.196642 33.414323 2.447013
2008-06-09 07:52:17 51°11.449 2°38.004 15.7084 4.196435 33.410395 2.447013
2008-06-09 07:52:22 51°11.439 2°37.983 15.7094 4.196331 33.406696 2.447013
2008-06-09 07:52:27 51°11.428 2°37.962 15.713 4.196331 33.406696 2.447013
2008-06-09 07:52:32 51°11.417 2°37.941 15.714 4.195605 33.398156 2.377365
2008-06-09 07:52:37 51°11.406 2°37.92 15.7122 4.19519 33.392384 2.447013
2008-06-09 07:52:42 51°11.395 2°37.899 15.7108 4.19519 33.38961 2.447013
2008-06-09 07:52:47 51°11.385 2°37.877 15.7079 4.195086 33.385914 2.481837
2008-06-09 07:52:52 51°11.374 2°37.856 15.7029 4.195293 33.384985 2.481837
2008-06-09 07:52:57 51°11.363 2°37.835 15.7005 4.195293 33.384985 2.481837
2008-06-09 07:53:02 51°11.352 2°37.814 15.6976 4.195189 33.381983 2.516661
2008-06-09 07:53:07 51°11.342 2°37.793 15.6916 4.194982 33.37806 2.516661
2008-06-09 07:53:12 51°11.331 2°37.771 15.6895 4.195397 33.381748 2.551485
2008-06-09 07:53:17 51°11.32 2°37.75 15.6886 4.195604 33.384286 2.621133
2008-06-09 07:53:22 51°11.309 2°37.729 15.6841 4.195605 33.386366 2.655957
2008-06-09 07:53:27 51°11.298 2°37.707 15.6798 4.195605 33.386366 2.655957
2008-06-09 07:53:32 51°11.288 2°37.686 15.6806 4.195812 33.39029 2.725606
2008-06-09 07:53:37 51°11.277 2°37.665 15.6824 4.195812 33.393758 2.76043
2008-06-09 07:53:42 51°11.266 2°37.643 15.6771 4.195812 33.396532 2.76043
2008-06-09 07:53:47 51°11.256 2°37.622 15.6738 4.195708 33.398384 2.76043
2008-06-09 07:53:52 51°11.245 2°37.6 15.6704 4.195916 33.403699 2.830078
2008-06-09 07:53:57 51°11.234 2°37.579 15.6703 4.195916 33.403699 2.830078
2008-06-09 07:54:02 51°11.224 2°37.557 15.6692 4.19602 33.408092 2.899726
2008-06-09 07:54:07 51°11.213 2°37.536 15.6704 4.196124 33.409709 2.864902
2008-06-09 07:54:12 51°11.202 2°37.514 15.6717 4.196227 33.412021 2.899726
2008-06-09 07:54:17 51°11.192 2°37.493 15.6739 4.196331 33.415027 2.899726
2008-06-09 07:54:22 51°11.181 2°37.471 15.6751 4.196331 33.418499 2.899726
2008-06-09 07:54:27 51°11.17 2°37.45 15.6743 4.196331 33.418499 2.899726
2008-06-09 07:54:32 51°11.16 2°37.428 15.6738 4.196435 33.421506 2.864902
2008-06-09 07:54:37 51°11.149 2°37.406 15.6736 4.196539 33.423124 2.93455
2008-06-09 07:54:42 51°11.139 2°37.384 15.6712 4.196643 33.424742 2.93455
2008-06-09 07:54:47 51°11.128 2°37.363 15.6724 4.196746 33.42497 2.899726
2008-06-09 07:54:52 51°11.117 2°37.341 15.671 4.19685 33.425198 2.93455
2008-06-09 07:54:57 51°11.107 2°37.319 15.67 4.19685 33.425198 2.93455
2008-06-09 07:55:02 51°11.096 2°37.298 15.6684 4.197161 33.427273 2.93455
2008-06-09 07:55:07 51°11.085 2°37.276 15.6654 4.197473 33.430042 2.93455
2008-06-09 07:55:12 51°11.075 2°37.255 15.6629 4.197784 33.432812 2.969374
2008-06-09 07:55:17 51°11.064 2°37.233 15.6561 4.198199 33.437894 2.899726
2008-06-09 07:55:22 51°11.054 2°37.211 15.65 4.198614 33.442282 2.969374
2008-06-09 07:55:27 51°11.043 2°37.19 15.6472 4.198614 33.442282 2.969374
2008-06-09 07:55:32 51°11.033 2°37.167 15.6445 4.199029 33.44667 3.004198
2008-06-09 07:55:37 51°11.023 2°37.145 15.6398 4.199651 33.453601 3.004198
2008-06-09 07:55:42 51°11.012 2°37.123 15.6335 4.200274 33.460532 3.039022
2008-06-09 07:55:47 51°11.002 2°37.1 15.6256 4.201 33.469779 3.039022
2008-06-09 07:55:52 51°10.992 2°37.078 15.617 4.202038 33.483191 3.10867
2008-06-09 07:55:57 51°10.982 2°37.055 15.615 4.202038 33.483191 3.10867
2008-06-09 07:56:02 51°10.972 2°37.033 15.6006 4.202868 33.495456 3.10867
2008-06-09 07:56:07 51°10.962 2°37.01 15.5945 4.203698 33.505634 3.073846
2008-06-09 07:56:12 51°10.952 2°36.988 15.5898 4.204736 33.51836 3.178318
2008-06-09 07:56:17 51°10.942 2°36.966 15.5822 4.205981 33.534332 3.213142
2008-06-09 07:56:22 51°10.931 2°36.944 15.5749 4.207538 33.555877 3.317614
2008-06-09 07:56:27 51°10.921 2°36.921 15.5719 4.207538 33.555877 3.317614
2008-06-09 07:56:32 51°10.911 2°36.899 15.5661 4.20899 33.575809 3.28279
2008-06-09 07:56:37 51°10.901 2°36.877 15.5572 4.210547 33.596675 3.352439
2008-06-09 07:56:42 51°10.89 2°36.855 15.5508 4.211481 33.6113 3.422087
2008-06-09 07:56:47 51°10.879 2°36.834 15.5518 4.212415 33.62593 3.456911
2008-06-09 07:56:52 51°10.869 2°36.812 15.5495 4.213556 33.643821 3.456911
2008-06-09 07:56:57 51°10.858 2°36.79 15.5435 4.213556 33.643821 3.456911
2008-06-09 07:57:02 51°10.848 2°36.768 15.5431 4.213971 33.652433 3.491735
2008-06-09 07:57:07 51°10.837 2°36.746 15.5402 4.215009 33.668007 3.561383
2008-06-09 07:57:12 51°10.827 2°36.724 15.5359 4.215943 33.682662 3.596207
2008-06-09 07:57:17 51°10.817 2°36.702 15.5338 4.216669 33.694767 3.596207
2008-06-09 07:57:22 51°10.806 2°36.681 15.5324 4.217084 33.702691 3.561383
2008-06-09 07:57:27 51°10.795 2°36.66 15.5263 4.217084 33.702691 3.561383
2008-06-09 07:57:32 51°10.784 2°36.639 15.5281 4.217396 33.708986 3.596207
2008-06-09 07:57:37 51°10.772 2°36.619 15.5252 4.217915 33.716434 3.631031
2008-06-09 07:57:42 51°10.76 2°36.599 15.5226 4.21833 33.722955 3.631031
2008-06-09 07:57:47 51°10.748 2°36.58 15.5244 4.218641 33.728551 3.631031
2008-06-09 07:57:52 51°10.736 2°36.561 15.5236 4.218952 33.734852 3.665855